Index of /20260507/WXO-DD/model_rdps/10km/18/005
Name Last modified Size Description
Parent Directory -
20260506T18Z_MSC_RDPS_AbsoluteVorticity_IsbL-0250_RLatLon0.09_PT005H.grib2 2026-05-07 02:53 587K
20260506T18Z_MSC_RDPS_AbsoluteVorticity_IsbL-0500_RLatLon0.09_PT005H.grib2 2026-05-07 02:53 549K
20260506T18Z_MSC_RDPS_AbsoluteVorticity_IsbL-0700_RLatLon0.09_PT005H.grib2 2026-05-07 02:53 617K
20260506T18Z_MSC_RDPS_AbsoluteVorticity_IsbL-0850_RLatLon0.09_PT005H.grib2 2026-05-07 02:53 782K
20260506T18Z_MSC_RDPS_AirTemp_AGL-120m_RLatLon0.09_PT005H.grib2 2026-05-07 02:53 387K
20260506T18Z_MSC_RDPS_AirTemp_AGL-2m_RLatLon0.09_PT005H.grib2 2026-05-07 02:53 617K
20260506T18Z_MSC_RDPS_AirTemp_AGL-40m_RLatLon0.09_PT005H.grib2 2026-05-07 02:53 397K
20260506T18Z_MSC_RDPS_AirTemp_AGL-80m_RLatLon0.09_PT005H.grib2 2026-05-07 02:53 391K
20260506T18Z_MSC_RDPS_AirTemp_IsbL-0001_RLatLon0.09_PT005H.grib2 2026-05-07 02:53 304K
20260506T18Z_MSC_RDPS_AirTemp_IsbL-0005_RLatLon0.09_PT005H.grib2 2026-05-07 02:53 276K
20260506T18Z_MSC_RDPS_AirTemp_IsbL-0010_RLatLon0.09_PT005H.grib2 2026-05-07 02:53 286K
20260506T18Z_MSC_RDPS_AirTemp_IsbL-0020_RLatLon0.09_PT005H.grib2 2026-05-07 02:53 302K
20260506T18Z_MSC_RDPS_AirTemp_IsbL-0030_RLatLon0.09_PT005H.grib2 2026-05-07 02:53 317K
20260506T18Z_MSC_RDPS_AirTemp_IsbL-0050_RLatLon0.09_PT005H.grib2 2026-05-07 02:53 299K
20260506T18Z_MSC_RDPS_AirTemp_IsbL-0100_RLatLon0.09_PT005H.grib2 2026-05-07 02:53 407K
20260506T18Z_MSC_RDPS_AirTemp_IsbL-0150_RLatLon0.09_PT005H.grib2 2026-05-07 02:53 400K
20260506T18Z_MSC_RDPS_AirTemp_IsbL-0175_RLatLon0.09_PT005H.grib2 2026-05-07 02:53 398K
20260506T18Z_MSC_RDPS_AirTemp_IsbL-0200_RLatLon0.09_PT005H.grib2 2026-05-07 02:53 405K
20260506T18Z_MSC_RDPS_AirTemp_IsbL-0225_RLatLon0.09_PT005H.grib2 2026-05-07 02:53 407K
20260506T18Z_MSC_RDPS_AirTemp_IsbL-0250_RLatLon0.09_PT005H.grib2 2026-05-07 02:53 412K
20260506T18Z_MSC_RDPS_AirTemp_IsbL-0275_RLatLon0.09_PT005H.grib2 2026-05-07 02:53 395K
20260506T18Z_MSC_RDPS_AirTemp_IsbL-0300_RLatLon0.09_PT005H.grib2 2026-05-07 02:53 404K
20260506T18Z_MSC_RDPS_AirTemp_IsbL-0350_RLatLon0.09_PT005H.grib2 2026-05-07 02:53 421K
20260506T18Z_MSC_RDPS_AirTemp_IsbL-0400_RLatLon0.09_PT005H.grib2 2026-05-07 02:53 424K
20260506T18Z_MSC_RDPS_AirTemp_IsbL-0450_RLatLon0.09_PT005H.grib2 2026-05-07 02:53 433K
20260506T18Z_MSC_RDPS_AirTemp_IsbL-0500_RLatLon0.09_PT005H.grib2 2026-05-07 02:53 442K
20260506T18Z_MSC_RDPS_AirTemp_IsbL-0550_RLatLon0.09_PT005H.grib2 2026-05-07 02:53 422K
20260506T18Z_MSC_RDPS_AirTemp_IsbL-0600_RLatLon0.09_PT005H.grib2 2026-05-07 02:53 441K
20260506T18Z_MSC_RDPS_AirTemp_IsbL-0650_RLatLon0.09_PT005H.grib2 2026-05-07 02:53 459K
20260506T18Z_MSC_RDPS_AirTemp_IsbL-0700_RLatLon0.09_PT005H.grib2 2026-05-07 02:53 487K
20260506T18Z_MSC_RDPS_AirTemp_IsbL-0750_RLatLon0.09_PT005H.grib2 2026-05-07 02:53 411K
20260506T18Z_MSC_RDPS_AirTemp_IsbL-0800_RLatLon0.09_PT005H.grib2 2026-05-07 02:53 452K
20260506T18Z_MSC_RDPS_AirTemp_IsbL-0850_RLatLon0.09_PT005H.grib2 2026-05-07 02:53 495K
20260506T18Z_MSC_RDPS_AirTemp_IsbL-0875_RLatLon0.09_PT005H.grib2 2026-05-07 02:53 511K
20260506T18Z_MSC_RDPS_AirTemp_IsbL-0900_RLatLon0.09_PT005H.grib2 2026-05-07 02:53 518K
20260506T18Z_MSC_RDPS_AirTemp_IsbL-0925_RLatLon0.09_PT005H.grib2 2026-05-07 02:53 520K
20260506T18Z_MSC_RDPS_AirTemp_IsbL-0950_RLatLon0.09_PT005H.grib2 2026-05-07 02:53 517K
20260506T18Z_MSC_RDPS_AirTemp_IsbL-0970_RLatLon0.09_PT005H.grib2 2026-05-07 02:53 513K
20260506T18Z_MSC_RDPS_AirTemp_IsbL-0985_RLatLon0.09_PT005H.grib2 2026-05-07 02:53 501K
20260506T18Z_MSC_RDPS_AirTemp_IsbL-1000_RLatLon0.09_PT005H.grib2 2026-05-07 02:53 497K
20260506T18Z_MSC_RDPS_AirTemp_IsbL-1015_RLatLon0.09_PT005H.grib2 2026-05-07 02:53 499K
20260506T18Z_MSC_RDPS_Albedo_Sfc_RLatLon0.09_PT005H.grib2 2026-05-07 02:53 152K
20260506T18Z_MSC_RDPS_CAPE_Sfc_RLatLon0.09_PT005H.grib2 2026-05-07 02:53 1.8M
20260506T18Z_MSC_RDPS_CIN_Sfc_RLatLon0.09_PT005H.grib2 2026-05-07 02:53 1.4M
20260506T18Z_MSC_RDPS_CloudWater_EAtm_RLatLon0.09_PT005H.grib2 2026-05-07 02:53 220K
20260506T18Z_MSC_RDPS_ConvectivePrecip-Accum_Sfc_RLatLon0.09_PT005H.grib2 2026-05-07 02:53 492K
20260506T18Z_MSC_RDPS_DewPointDepression_AGL-2m_RLatLon0.09_PT005H.grib2 2026-05-07 02:53 415K
20260506T18Z_MSC_RDPS_DewPointDepression_IsbL-0001_RLatLon0.09_PT005H.grib2 2026-05-07 02:53 193
20260506T18Z_MSC_RDPS_DewPointDepression_IsbL-0005_RLatLon0.09_PT005H.grib2 2026-05-07 02:53 193
20260506T18Z_MSC_RDPS_DewPointDepression_IsbL-0010_RLatLon0.09_PT005H.grib2 2026-05-07 02:53 193
20260506T18Z_MSC_RDPS_DewPointDepression_IsbL-0020_RLatLon0.09_PT005H.grib2 2026-05-07 02:53 193
20260506T18Z_MSC_RDPS_DewPointDepression_IsbL-0030_RLatLon0.09_PT005H.grib2 2026-05-07 02:53 193
20260506T18Z_MSC_RDPS_DewPointDepression_IsbL-0050_RLatLon0.09_PT005H.grib2 2026-05-07 02:53 78K
20260506T18Z_MSC_RDPS_DewPointDepression_IsbL-0100_RLatLon0.09_PT005H.grib2 2026-05-07 02:53 109K
20260506T18Z_MSC_RDPS_DewPointDepression_IsbL-0150_RLatLon0.09_PT005H.grib2 2026-05-07 02:53 140K
20260506T18Z_MSC_RDPS_DewPointDepression_IsbL-0175_RLatLon0.09_PT005H.grib2 2026-05-07 02:53 183K
20260506T18Z_MSC_RDPS_DewPointDepression_IsbL-0200_RLatLon0.09_PT005H.grib2 2026-05-07 02:53 225K
20260506T18Z_MSC_RDPS_DewPointDepression_IsbL-0225_RLatLon0.09_PT005H.grib2 2026-05-07 02:53 252K
20260506T18Z_MSC_RDPS_DewPointDepression_IsbL-0250_RLatLon0.09_PT005H.grib2 2026-05-07 02:53 291K
20260506T18Z_MSC_RDPS_DewPointDepression_IsbL-0275_RLatLon0.09_PT005H.grib2 2026-05-07 02:53 304K
20260506T18Z_MSC_RDPS_DewPointDepression_IsbL-0300_RLatLon0.09_PT005H.grib2 2026-05-07 02:53 323K
20260506T18Z_MSC_RDPS_DewPointDepression_IsbL-0350_RLatLon0.09_PT005H.grib2 2026-05-07 02:53 332K
20260506T18Z_MSC_RDPS_DewPointDepression_IsbL-0400_RLatLon0.09_PT005H.grib2 2026-05-07 02:53 339K
20260506T18Z_MSC_RDPS_DewPointDepression_IsbL-0450_RLatLon0.09_PT005H.grib2 2026-05-07 02:53 339K
20260506T18Z_MSC_RDPS_DewPointDepression_IsbL-0500_RLatLon0.09_PT005H.grib2 2026-05-07 02:53 342K
20260506T18Z_MSC_RDPS_DewPointDepression_IsbL-0550_RLatLon0.09_PT005H.grib2 2026-05-07 02:53 353K
20260506T18Z_MSC_RDPS_DewPointDepression_IsbL-0600_RLatLon0.09_PT005H.grib2 2026-05-07 02:53 362K
20260506T18Z_MSC_RDPS_DewPointDepression_IsbL-0650_RLatLon0.09_PT005H.grib2 2026-05-07 02:53 367K
20260506T18Z_MSC_RDPS_DewPointDepression_IsbL-0700_RLatLon0.09_PT005H.grib2 2026-05-07 02:53 379K
20260506T18Z_MSC_RDPS_DewPointDepression_IsbL-0750_RLatLon0.09_PT005H.grib2 2026-05-07 02:53 402K
20260506T18Z_MSC_RDPS_DewPointDepression_IsbL-0800_RLatLon0.09_PT005H.grib2 2026-05-07 02:53 443K
20260506T18Z_MSC_RDPS_DewPointDepression_IsbL-0850_RLatLon0.09_PT005H.grib2 2026-05-07 02:53 472K
20260506T18Z_MSC_RDPS_DewPointDepression_IsbL-0875_RLatLon0.09_PT005H.grib2 2026-05-07 02:53 470K
20260506T18Z_MSC_RDPS_DewPointDepression_IsbL-0900_RLatLon0.09_PT005H.grib2 2026-05-07 02:53 463K
20260506T18Z_MSC_RDPS_DewPointDepression_IsbL-0925_RLatLon0.09_PT005H.grib2 2026-05-07 02:53 455K
20260506T18Z_MSC_RDPS_DewPointDepression_IsbL-0950_RLatLon0.09_PT005H.grib2 2026-05-07 02:53 441K
20260506T18Z_MSC_RDPS_DewPointDepression_IsbL-0970_RLatLon0.09_PT005H.grib2 2026-05-07 02:53 435K
20260506T18Z_MSC_RDPS_DewPointDepression_IsbL-0985_RLatLon0.09_PT005H.grib2 2026-05-07 02:53 431K
20260506T18Z_MSC_RDPS_DewPointDepression_IsbL-1000_RLatLon0.09_PT005H.grib2 2026-05-07 02:53 428K
20260506T18Z_MSC_RDPS_DewPointDepression_IsbL-1015_RLatLon0.09_PT005H.grib2 2026-05-07 02:53 416K
20260506T18Z_MSC_RDPS_DewPoint_AGL-2m_RLatLon0.09_PT005H.grib2 2026-05-07 02:53 308K
20260506T18Z_MSC_RDPS_DownwardLongwaveRadiationFlux-Accum_Sfc_RLatLon0.09_PT005H.grib2 2026-05-07 02:53 472K
20260506T18Z_MSC_RDPS_DownwardShortwaveRadiationFlux-Accum_NTAtm_RLatLon0.09_PT005H.grib2 2026-05-07 02:53 100K
20260506T18Z_MSC_RDPS_DownwardShortwaveRadiationFlux-Accum_Sfc_RLatLon0.09_PT005H.grib2 2026-05-07 02:53 588K
20260506T18Z_MSC_RDPS_FreezingRain-Accum1h_Sfc_RLatLon0.09_PT005H.grib2 2026-05-07 02:53 13K
20260506T18Z_MSC_RDPS_FreezingRain-Accum_Sfc_RLatLon0.09_PT005H.grib2 2026-05-07 02:53 27K
20260506T18Z_MSC_RDPS_GeopotentialHeight_IsbL-0001_RLatLon0.09_PT005H.grib2 2026-05-07 02:53 340K
20260506T18Z_MSC_RDPS_GeopotentialHeight_IsbL-0005_RLatLon0.09_PT005H.grib2 2026-05-07 02:53 333K
20260506T18Z_MSC_RDPS_GeopotentialHeight_IsbL-0010_RLatLon0.09_PT005H.grib2 2026-05-07 02:53 334K
20260506T18Z_MSC_RDPS_GeopotentialHeight_IsbL-0020_RLatLon0.09_PT005H.grib2 2026-05-07 02:53 300K
20260506T18Z_MSC_RDPS_GeopotentialHeight_IsbL-0030_RLatLon0.09_PT005H.grib2 2026-05-07 02:53 302K
20260506T18Z_MSC_RDPS_GeopotentialHeight_IsbL-0050_RLatLon0.09_PT005H.grib2 2026-05-07 02:53 303K
20260506T18Z_MSC_RDPS_GeopotentialHeight_IsbL-0100_RLatLon0.09_PT005H.grib2 2026-05-07 02:53 284K
20260506T18Z_MSC_RDPS_GeopotentialHeight_IsbL-0150_RLatLon0.09_PT005H.grib2 2026-05-07 02:53 228K
20260506T18Z_MSC_RDPS_GeopotentialHeight_IsbL-0175_RLatLon0.09_PT005H.grib2 2026-05-07 02:53 230K
20260506T18Z_MSC_RDPS_GeopotentialHeight_IsbL-0200_RLatLon0.09_PT005H.grib2 2026-05-07 02:53 265K
20260506T18Z_MSC_RDPS_GeopotentialHeight_IsbL-0225_RLatLon0.09_PT005H.grib2 2026-05-07 02:53 267K
20260506T18Z_MSC_RDPS_GeopotentialHeight_IsbL-0250_RLatLon0.09_PT005H.grib2 2026-05-07 02:53 268K
20260506T18Z_MSC_RDPS_GeopotentialHeight_IsbL-0275_RLatLon0.09_PT005H.grib2 2026-05-07 02:53 266K
20260506T18Z_MSC_RDPS_GeopotentialHeight_IsbL-0300_RLatLon0.09_PT005H.grib2 2026-05-07 02:53 236K
20260506T18Z_MSC_RDPS_GeopotentialHeight_IsbL-0350_RLatLon0.09_PT005H.grib2 2026-05-07 02:53 233K
20260506T18Z_MSC_RDPS_GeopotentialHeight_IsbL-0400_RLatLon0.09_PT005H.grib2 2026-05-07 02:53 229K
20260506T18Z_MSC_RDPS_GeopotentialHeight_IsbL-0450_RLatLon0.09_PT005H.grib2 2026-05-07 02:53 296K
20260506T18Z_MSC_RDPS_GeopotentialHeight_IsbL-0500_RLatLon0.09_PT005H.grib2 2026-05-07 02:53 292K
20260506T18Z_MSC_RDPS_GeopotentialHeight_IsbL-0550_RLatLon0.09_PT005H.grib2 2026-05-07 02:53 288K
20260506T18Z_MSC_RDPS_GeopotentialHeight_IsbL-0600_RLatLon0.09_PT005H.grib2 2026-05-07 02:53 287K
20260506T18Z_MSC_RDPS_GeopotentialHeight_IsbL-0650_RLatLon0.09_PT005H.grib2 2026-05-07 02:53 256K
20260506T18Z_MSC_RDPS_GeopotentialHeight_IsbL-0700_RLatLon0.09_PT005H.grib2 2026-05-07 02:53 256K
20260506T18Z_MSC_RDPS_GeopotentialHeight_IsbL-0750_RLatLon0.09_PT005H.grib2 2026-05-07 02:53 340K
20260506T18Z_MSC_RDPS_GeopotentialHeight_IsbL-0800_RLatLon0.09_PT005H.grib2 2026-05-07 02:53 347K
20260506T18Z_MSC_RDPS_GeopotentialHeight_IsbL-0850_RLatLon0.09_PT005H.grib2 2026-05-07 02:53 353K
20260506T18Z_MSC_RDPS_GeopotentialHeight_IsbL-0875_RLatLon0.09_PT005H.grib2 2026-05-07 02:53 354K
20260506T18Z_MSC_RDPS_GeopotentialHeight_IsbL-0900_RLatLon0.09_PT005H.grib2 2026-05-07 02:53 359K
20260506T18Z_MSC_RDPS_GeopotentialHeight_IsbL-0925_RLatLon0.09_PT005H.grib2 2026-05-07 02:53 363K
20260506T18Z_MSC_RDPS_GeopotentialHeight_IsbL-0950_RLatLon0.09_PT005H.grib2 2026-05-07 02:53 365K
20260506T18Z_MSC_RDPS_GeopotentialHeight_IsbL-0970_RLatLon0.09_PT005H.grib2 2026-05-07 02:53 371K
20260506T18Z_MSC_RDPS_GeopotentialHeight_IsbL-0985_RLatLon0.09_PT005H.grib2 2026-05-07 02:53 380K
20260506T18Z_MSC_RDPS_GeopotentialHeight_IsbL-1000_RLatLon0.09_PT005H.grib2 2026-05-07 02:53 392K
20260506T18Z_MSC_RDPS_GeopotentialHeight_IsbL-1015_RLatLon0.09_PT005H.grib2 2026-05-07 02:53 406K
20260506T18Z_MSC_RDPS_Humidex_Sfc_RLatLon0.09_PT005H.grib2 2026-05-07 02:53 2.4M
20260506T18Z_MSC_RDPS_IcePellets-Accum1h_Sfc_RLatLon0.09_PT005H.grib2 2026-05-07 02:53 5.2K
20260506T18Z_MSC_RDPS_IcePellets-Accum_Sfc_RLatLon0.09_PT005H.grib2 2026-05-07 02:53 8.1K
20260506T18Z_MSC_RDPS_KIndex_Sfc_RLatLon0.09_PT005H.grib2 2026-05-07 02:53 2.4M
20260506T18Z_MSC_RDPS_LatentHeatNetFlux_Sfc_RLatLon0.09_PT005H.grib2 2026-05-07 02:53 372K
20260506T18Z_MSC_RDPS_LiftedIndex-MU-VT_IsbL-0500_RLatLon0.09_PT005H.grib2 2026-05-07 02:53 2.4M
20260506T18Z_MSC_RDPS_NetLongwaveRadiationFlux-Accum_Sfc_RLatLon0.09_PT005H.grib2 2026-05-07 02:53 497K
20260506T18Z_MSC_RDPS_NetShortwaveRadiationFlux-Accum_Sfc_RLatLon0.09_PT005H.grib2 2026-05-07 02:53 577K
20260506T18Z_MSC_RDPS_PlanetaryBoundaryLayerHeight_Sfc_RLatLon0.09_PT005H.grib2 2026-05-07 02:53 1.0M
20260506T18Z_MSC_RDPS_Precip-Accum1h_Sfc_RLatLon0.09_PT005H.grib2 2026-05-07 02:53 1.2M
20260506T18Z_MSC_RDPS_Precip-Accum_Sfc_RLatLon0.09_PT005H.grib2 2026-05-07 02:53 1.4M
20260506T18Z_MSC_RDPS_PrecipRate_Sfc_RLatLon0.09_PT005H.grib2 2026-05-07 02:53 159K
20260506T18Z_MSC_RDPS_PrecipType-Instant_Sfc_RLatLon0.09_PT005H.grib2 2026-05-07 02:53 553K
20260506T18Z_MSC_RDPS_Pressure-Trend3h_Sfc_RLatLon0.09_PT005H.grib2 2026-05-07 02:53 1.2M
20260506T18Z_MSC_RDPS_Pressure_MSL_RLatLon0.09_PT005H.grib2 2026-05-07 02:53 294K
20260506T18Z_MSC_RDPS_Pressure_PVU-1.5_RLatLon0.09_PT005H.grib2 2026-05-07 02:53 2.3M
20260506T18Z_MSC_RDPS_Pressure_PVU-1_RLatLon0.09_PT005H.grib2 2026-05-07 02:53 2.4M
20260506T18Z_MSC_RDPS_Pressure_PVU-2_RLatLon0.09_PT005H.grib2 2026-05-07 02:53 2.4M
20260506T18Z_MSC_RDPS_Pressure_Sfc_RLatLon0.09_PT005H.grib2 2026-05-07 02:53 498K
20260506T18Z_MSC_RDPS_RadiativeTemp_Sfc_RLatLon0.09_PT005H.grib2 2026-05-07 02:53 313K
20260506T18Z_MSC_RDPS_Rain-Accum1h_Sfc_RLatLon0.09_PT005H.grib2 2026-05-07 02:53 590K
20260506T18Z_MSC_RDPS_Rain-Accum_Sfc_RLatLon0.09_PT005H.grib2 2026-05-07 02:53 1.1M
20260506T18Z_MSC_RDPS_RelativeHumidity_AGL-2m_RLatLon0.09_PT005H.grib2 2026-05-07 02:53 1.0M
20260506T18Z_MSC_RDPS_RelativeHumidity_IsbL-0010_RLatLon0.09_PT005H.grib2 2026-05-07 02:53 586K
20260506T18Z_MSC_RDPS_RelativeHumidity_IsbL-0020_RLatLon0.09_PT005H.grib2 2026-05-07 02:53 649K
20260506T18Z_MSC_RDPS_RelativeHumidity_IsbL-0030_RLatLon0.09_PT005H.grib2 2026-05-07 02:53 594K
20260506T18Z_MSC_RDPS_RelativeHumidity_IsbL-0050_RLatLon0.09_PT005H.grib2 2026-05-07 02:53 351K
20260506T18Z_MSC_RDPS_RelativeHumidity_IsbL-0100_RLatLon0.09_PT005H.grib2 2026-05-07 02:53 264K
20260506T18Z_MSC_RDPS_RelativeHumidity_IsbL-0150_RLatLon0.09_PT005H.grib2 2026-05-07 02:53 411K
20260506T18Z_MSC_RDPS_RelativeHumidity_IsbL-0175_RLatLon0.09_PT005H.grib2 2026-05-07 02:53 472K
20260506T18Z_MSC_RDPS_RelativeHumidity_IsbL-0200_RLatLon0.09_PT005H.grib2 2026-05-07 02:53 546K
20260506T18Z_MSC_RDPS_RelativeHumidity_IsbL-0225_RLatLon0.09_PT005H.grib2 2026-05-07 02:53 603K
20260506T18Z_MSC_RDPS_RelativeHumidity_IsbL-0250_RLatLon0.09_PT005H.grib2 2026-05-07 02:53 660K
20260506T18Z_MSC_RDPS_RelativeHumidity_IsbL-0275_RLatLon0.09_PT005H.grib2 2026-05-07 02:53 690K
20260506T18Z_MSC_RDPS_RelativeHumidity_IsbL-0300_RLatLon0.09_PT005H.grib2 2026-05-07 02:53 737K
20260506T18Z_MSC_RDPS_RelativeHumidity_IsbL-0350_RLatLon0.09_PT005H.grib2 2026-05-07 02:53 765K
20260506T18Z_MSC_RDPS_RelativeHumidity_IsbL-0400_RLatLon0.09_PT005H.grib2 2026-05-07 02:53 780K
20260506T18Z_MSC_RDPS_RelativeHumidity_IsbL-0450_RLatLon0.09_PT005H.grib2 2026-05-07 02:53 780K
20260506T18Z_MSC_RDPS_RelativeHumidity_IsbL-0500_RLatLon0.09_PT005H.grib2 2026-05-07 02:53 792K
20260506T18Z_MSC_RDPS_RelativeHumidity_IsbL-0550_RLatLon0.09_PT005H.grib2 2026-05-07 02:53 809K
20260506T18Z_MSC_RDPS_RelativeHumidity_IsbL-0600_RLatLon0.09_PT005H.grib2 2026-05-07 02:53 831K
20260506T18Z_MSC_RDPS_RelativeHumidity_IsbL-0650_RLatLon0.09_PT005H.grib2 2026-05-07 02:53 845K
20260506T18Z_MSC_RDPS_RelativeHumidity_IsbL-0700_RLatLon0.09_PT005H.grib2 2026-05-07 02:53 871K
20260506T18Z_MSC_RDPS_RelativeHumidity_IsbL-0750_RLatLon0.09_PT005H.grib2 2026-05-07 02:53 917K
20260506T18Z_MSC_RDPS_RelativeHumidity_IsbL-0800_RLatLon0.09_PT005H.grib2 2026-05-07 02:53 1.0M
20260506T18Z_MSC_RDPS_RelativeHumidity_IsbL-0850_RLatLon0.09_PT005H.grib2 2026-05-07 02:53 1.0M
20260506T18Z_MSC_RDPS_RelativeHumidity_IsbL-0875_RLatLon0.09_PT005H.grib2 2026-05-07 02:53 1.0M
20260506T18Z_MSC_RDPS_RelativeHumidity_IsbL-0900_RLatLon0.09_PT005H.grib2 2026-05-07 02:53 1.1M
20260506T18Z_MSC_RDPS_RelativeHumidity_IsbL-0925_RLatLon0.09_PT005H.grib2 2026-05-07 02:53 1.1M
20260506T18Z_MSC_RDPS_RelativeHumidity_IsbL-0950_RLatLon0.09_PT005H.grib2 2026-05-07 02:53 1.0M
20260506T18Z_MSC_RDPS_RelativeHumidity_IsbL-0970_RLatLon0.09_PT005H.grib2 2026-05-07 02:53 1.0M
20260506T18Z_MSC_RDPS_RelativeHumidity_IsbL-0985_RLatLon0.09_PT005H.grib2 2026-05-07 02:53 1.0M
20260506T18Z_MSC_RDPS_RelativeHumidity_IsbL-1000_RLatLon0.09_PT005H.grib2 2026-05-07 02:53 1.0M
20260506T18Z_MSC_RDPS_RelativeHumidity_IsbL-1015_RLatLon0.09_PT005H.grib2 2026-05-07 02:53 1.0M
20260506T18Z_MSC_RDPS_Runoff-Accum_Sfc_RLatLon0.09_PT005H.grib2 2026-05-07 02:53 60K
20260506T18Z_MSC_RDPS_SWEATIndex_Sfc_RLatLon0.09_PT005H.grib2 2026-05-07 02:53 2.4M
20260506T18Z_MSC_RDPS_SeeingIndex_EAtm_RLatLon0.09_PT005H.grib2 2026-05-07 02:53 1.0M
20260506T18Z_MSC_RDPS_SensibleHeatNetFlux_Sfc_RLatLon0.09_PT005H.grib2 2026-05-07 02:53 250K
20260506T18Z_MSC_RDPS_ShowalterIndex_IsbL-0500_RLatLon0.09_PT005H.grib2 2026-05-07 02:53 2.6M
20260506T18Z_MSC_RDPS_SkyTransparencyIndex_EAtm_RLatLon0.09_PT005H.grib2 2026-05-07 02:53 700K
20260506T18Z_MSC_RDPS_Snow-Accum1h_Sfc_RLatLon0.09_PT005H.grib2 2026-05-07 02:53 484K
20260506T18Z_MSC_RDPS_Snow-Accum_Sfc_RLatLon0.09_PT005H.grib2 2026-05-07 02:53 588K
20260506T18Z_MSC_RDPS_SnowDensity_Sfc_RLatLon0.09_PT005H.grib2 2026-05-07 02:53 168K
20260506T18Z_MSC_RDPS_SnowDepth_Sfc_RLatLon0.09_PT005H.grib2 2026-05-07 02:53 636K
20260506T18Z_MSC_RDPS_SoilTemp_DBS-0to10cm_RLatLon0.09_PT005H.grib2 2026-05-07 02:53 205K
20260506T18Z_MSC_RDPS_SoilTemp_Sfc_RLatLon0.09_PT005H.grib2 2026-05-07 02:53 282K
20260506T18Z_MSC_RDPS_SoilVolumetricIceContent_Sfc_RLatLon0.09_PT005H.grib2 2026-05-07 02:53 150K
20260506T18Z_MSC_RDPS_SoilVolumetricWaterContent_DBS-0to10cm_RLatLon0.09_PT005H.grib2 2026-05-07 02:53 280K
20260506T18Z_MSC_RDPS_SoilVolumetricWaterContent_DBS-0to1cm_RLatLon0.09_PT005H.grib2 2026-05-07 02:53 333K
20260506T18Z_MSC_RDPS_SpecificHumidity_AGL-120m_RLatLon0.09_PT005H.grib2 2026-05-07 02:53 490K
20260506T18Z_MSC_RDPS_SpecificHumidity_AGL-2m_RLatLon0.09_PT005H.grib2 2026-05-07 02:53 659K
20260506T18Z_MSC_RDPS_SpecificHumidity_AGL-40m_RLatLon0.09_PT005H.grib2 2026-05-07 02:53 495K
20260506T18Z_MSC_RDPS_SpecificHumidity_AGL-80m_RLatLon0.09_PT005H.grib2 2026-05-07 02:53 491K
20260506T18Z_MSC_RDPS_SpecificHumidity_IsbL-0001_RLatLon0.09_PT005H.grib2 2026-05-07 02:53 306K
20260506T18Z_MSC_RDPS_SpecificHumidity_IsbL-0005_RLatLon0.09_PT005H.grib2 2026-05-07 02:53 368K
20260506T18Z_MSC_RDPS_SpecificHumidity_IsbL-0010_RLatLon0.09_PT005H.grib2 2026-05-07 02:53 399K
20260506T18Z_MSC_RDPS_SpecificHumidity_IsbL-0020_RLatLon0.09_PT005H.grib2 2026-05-07 02:53 380K
20260506T18Z_MSC_RDPS_SpecificHumidity_IsbL-0030_RLatLon0.09_PT005H.grib2 2026-05-07 02:53 371K
20260506T18Z_MSC_RDPS_SpecificHumidity_IsbL-0050_RLatLon0.09_PT005H.grib2 2026-05-07 02:53 449K
20260506T18Z_MSC_RDPS_SpecificHumidity_IsbL-0100_RLatLon0.09_PT005H.grib2 2026-05-07 02:53 432K
20260506T18Z_MSC_RDPS_SpecificHumidity_IsbL-0150_RLatLon0.09_PT005H.grib2 2026-05-07 02:53 456K
20260506T18Z_MSC_RDPS_SpecificHumidity_IsbL-0175_RLatLon0.09_PT005H.grib2 2026-05-07 02:53 445K
20260506T18Z_MSC_RDPS_SpecificHumidity_IsbL-0200_RLatLon0.09_PT005H.grib2 2026-05-07 02:53 456K
20260506T18Z_MSC_RDPS_SpecificHumidity_IsbL-0225_RLatLon0.09_PT005H.grib2 2026-05-07 02:53 449K
20260506T18Z_MSC_RDPS_SpecificHumidity_IsbL-0250_RLatLon0.09_PT005H.grib2 2026-05-07 02:53 548K
20260506T18Z_MSC_RDPS_SpecificHumidity_IsbL-0275_RLatLon0.09_PT005H.grib2 2026-05-07 02:53 467K
20260506T18Z_MSC_RDPS_SpecificHumidity_IsbL-0300_RLatLon0.09_PT005H.grib2 2026-05-07 02:53 567K
20260506T18Z_MSC_RDPS_SpecificHumidity_IsbL-0350_RLatLon0.09_PT005H.grib2 2026-05-07 02:53 564K
20260506T18Z_MSC_RDPS_SpecificHumidity_IsbL-0400_RLatLon0.09_PT005H.grib2 2026-05-07 02:53 521K
20260506T18Z_MSC_RDPS_SpecificHumidity_IsbL-0450_RLatLon0.09_PT005H.grib2 2026-05-07 02:53 567K
20260506T18Z_MSC_RDPS_SpecificHumidity_IsbL-0500_RLatLon0.09_PT005H.grib2 2026-05-07 02:53 496K
20260506T18Z_MSC_RDPS_SpecificHumidity_IsbL-0550_RLatLon0.09_PT005H.grib2 2026-05-07 02:53 569K
20260506T18Z_MSC_RDPS_SpecificHumidity_IsbL-0600_RLatLon0.09_PT005H.grib2 2026-05-07 02:53 622K
20260506T18Z_MSC_RDPS_SpecificHumidity_IsbL-0650_RLatLon0.09_PT005H.grib2 2026-05-07 02:53 540K
20260506T18Z_MSC_RDPS_SpecificHumidity_IsbL-0700_RLatLon0.09_PT005H.grib2 2026-05-07 02:53 584K
20260506T18Z_MSC_RDPS_SpecificHumidity_IsbL-0750_RLatLon0.09_PT005H.grib2 2026-05-07 02:53 656K
20260506T18Z_MSC_RDPS_SpecificHumidity_IsbL-0800_RLatLon0.09_PT005H.grib2 2026-05-07 02:53 733K
20260506T18Z_MSC_RDPS_SpecificHumidity_IsbL-0850_RLatLon0.09_PT005H.grib2 2026-05-07 02:53 808K
20260506T18Z_MSC_RDPS_SpecificHumidity_IsbL-0875_RLatLon0.09_PT005H.grib2 2026-05-07 02:53 693K
20260506T18Z_MSC_RDPS_SpecificHumidity_IsbL-0900_RLatLon0.09_PT005H.grib2 2026-05-07 02:53 705K
20260506T18Z_MSC_RDPS_SpecificHumidity_IsbL-0925_RLatLon0.09_PT005H.grib2 2026-05-07 02:53 711K
20260506T18Z_MSC_RDPS_SpecificHumidity_IsbL-0950_RLatLon0.09_PT005H.grib2 2026-05-07 02:53 708K
20260506T18Z_MSC_RDPS_SpecificHumidity_IsbL-0970_RLatLon0.09_PT005H.grib2 2026-05-07 02:53 699K
20260506T18Z_MSC_RDPS_SpecificHumidity_IsbL-0985_RLatLon0.09_PT005H.grib2 2026-05-07 02:53 691K
20260506T18Z_MSC_RDPS_SpecificHumidity_IsbL-1000_RLatLon0.09_PT005H.grib2 2026-05-07 02:53 687K
20260506T18Z_MSC_RDPS_SpecificHumidity_IsbL-1015_RLatLon0.09_PT005H.grib2 2026-05-07 02:53 673K
20260506T18Z_MSC_RDPS_SpecificHumidity_Sfc_RLatLon0.09_PT005H.grib2 2026-05-07 02:53 336K
20260506T18Z_MSC_RDPS_StormRelativeHelicity_EtaL-10000_RLatLon0.09_PT005H.grib2 2026-05-07 02:53 1.1M
20260506T18Z_MSC_RDPS_StormSeverityIndex_EtaL-10000_RLatLon0.09_PT005H.grib2 2026-05-07 02:53 1.2M
20260506T18Z_MSC_RDPS_Thickness_IsbL-0850to0700_RLatLon0.09_PT005H.grib2 2026-05-07 02:53 175K
20260506T18Z_MSC_RDPS_Thickness_IsbL-1000to0500_RLatLon0.09_PT005H.grib2 2026-05-07 02:53 196K
20260506T18Z_MSC_RDPS_Thickness_IsbL-1000to0850_RLatLon0.09_PT005H.grib2 2026-05-07 02:53 184K
20260506T18Z_MSC_RDPS_TotalCloudCover_Sfc_RLatLon0.09_PT005H.grib2 2026-05-07 02:53 646K
20260506T18Z_MSC_RDPS_TotalTotalsIndex_Sfc_RLatLon0.09_PT005H.grib2 2026-05-07 02:53 2.4M
20260506T18Z_MSC_RDPS_UVIndex-ClearSky_Sfc_RLatLon0.09_PT005H.grib2 2026-05-07 02:53 205K
20260506T18Z_MSC_RDPS_UVIndex_Sfc_RLatLon0.09_PT005H.grib2 2026-05-07 02:53 446K
20260506T18Z_MSC_RDPS_UpwardLongwaveRadiationFlux_NTAtm_RLatLon0.09_PT005H.grib2 2026-05-07 02:53 376K
20260506T18Z_MSC_RDPS_UpwardShortwaveRadiationFlux_NTAtm_RLatLon0.09_PT005H.grib2 2026-05-07 02:53 399K
20260506T18Z_MSC_RDPS_VerticalVelocity_IsbL-0250_RLatLon0.09_PT005H.grib2 2026-05-07 02:53 572K
20260506T18Z_MSC_RDPS_VerticalVelocity_IsbL-0500_RLatLon0.09_PT005H.grib2 2026-05-07 02:53 538K
20260506T18Z_MSC_RDPS_VerticalVelocity_IsbL-0700_RLatLon0.09_PT005H.grib2 2026-05-07 02:53 593K
20260506T18Z_MSC_RDPS_VerticalVelocity_IsbL-0850_RLatLon0.09_PT005H.grib2 2026-05-07 02:53 697K
20260506T18Z_MSC_RDPS_VerticalWindShear_EtaL-6500_RLatLon0.09_PT005H.grib2 2026-05-07 02:53 1.2M
20260506T18Z_MSC_RDPS_WindChill_Sfc_RLatLon0.09_PT005H.grib2 2026-05-07 02:53 1.1M
20260506T18Z_MSC_RDPS_WindDir_AGL-10m_RLatLon0.09_PT005H.grib2 2026-05-07 02:53 932K
20260506T18Z_MSC_RDPS_WindDir_AGL-120m_RLatLon0.09_PT005H.grib2 2026-05-07 02:53 583K
20260506T18Z_MSC_RDPS_WindDir_AGL-40m_RLatLon0.09_PT005H.grib2 2026-05-07 02:53 606K
20260506T18Z_MSC_RDPS_WindDir_AGL-80m_RLatLon0.09_PT005H.grib2 2026-05-07 02:53 592K
20260506T18Z_MSC_RDPS_WindDir_IsbL-0001_RLatLon0.09_PT005H.grib2 2026-05-07 02:53 290K
20260506T18Z_MSC_RDPS_WindDir_IsbL-0005_RLatLon0.09_PT005H.grib2 2026-05-07 02:53 364K
20260506T18Z_MSC_RDPS_WindDir_IsbL-0010_RLatLon0.09_PT005H.grib2 2026-05-07 02:53 368K
20260506T18Z_MSC_RDPS_WindDir_IsbL-0020_RLatLon0.09_PT005H.grib2 2026-05-07 02:53 382K
20260506T18Z_MSC_RDPS_WindDir_IsbL-0030_RLatLon0.09_PT005H.grib2 2026-05-07 02:53 376K
20260506T18Z_MSC_RDPS_WindDir_IsbL-0050_RLatLon0.09_PT005H.grib2 2026-05-07 02:53 403K
20260506T18Z_MSC_RDPS_WindDir_IsbL-0100_RLatLon0.09_PT005H.grib2 2026-05-07 02:53 402K
20260506T18Z_MSC_RDPS_WindDir_IsbL-0150_RLatLon0.09_PT005H.grib2 2026-05-07 02:53 403K
20260506T18Z_MSC_RDPS_WindDir_IsbL-0175_RLatLon0.09_PT005H.grib2 2026-05-07 02:53 427K
20260506T18Z_MSC_RDPS_WindDir_IsbL-0200_RLatLon0.09_PT005H.grib2 2026-05-07 02:53 447K
20260506T18Z_MSC_RDPS_WindDir_IsbL-0225_RLatLon0.09_PT005H.grib2 2026-05-07 02:53 456K
20260506T18Z_MSC_RDPS_WindDir_IsbL-0250_RLatLon0.09_PT005H.grib2 2026-05-07 02:53 448K
20260506T18Z_MSC_RDPS_WindDir_IsbL-0275_RLatLon0.09_PT005H.grib2 2026-05-07 02:53 468K
20260506T18Z_MSC_RDPS_WindDir_IsbL-0300_RLatLon0.09_PT005H.grib2 2026-05-07 02:53 468K
20260506T18Z_MSC_RDPS_WindDir_IsbL-0350_RLatLon0.09_PT005H.grib2 2026-05-07 02:53 493K
20260506T18Z_MSC_RDPS_WindDir_IsbL-0400_RLatLon0.09_PT005H.grib2 2026-05-07 02:53 509K
20260506T18Z_MSC_RDPS_WindDir_IsbL-0450_RLatLon0.09_PT005H.grib2 2026-05-07 02:53 521K
20260506T18Z_MSC_RDPS_WindDir_IsbL-0500_RLatLon0.09_PT005H.grib2 2026-05-07 02:53 537K
20260506T18Z_MSC_RDPS_WindDir_IsbL-0550_RLatLon0.09_PT005H.grib2 2026-05-07 02:53 556K
20260506T18Z_MSC_RDPS_WindDir_IsbL-0600_RLatLon0.09_PT005H.grib2 2026-05-07 02:53 583K
20260506T18Z_MSC_RDPS_WindDir_IsbL-0650_RLatLon0.09_PT005H.grib2 2026-05-07 02:53 628K
20260506T18Z_MSC_RDPS_WindDir_IsbL-0700_RLatLon0.09_PT005H.grib2 2026-05-07 02:53 677K
20260506T18Z_MSC_RDPS_WindDir_IsbL-0750_RLatLon0.09_PT005H.grib2 2026-05-07 02:53 724K
20260506T18Z_MSC_RDPS_WindDir_IsbL-0800_RLatLon0.09_PT005H.grib2 2026-05-07 02:53 783K
20260506T18Z_MSC_RDPS_WindDir_IsbL-0850_RLatLon0.09_PT005H.grib2 2026-05-07 02:53 843K
20260506T18Z_MSC_RDPS_WindDir_IsbL-0875_RLatLon0.09_PT005H.grib2 2026-05-07 02:53 866K
20260506T18Z_MSC_RDPS_WindDir_IsbL-0900_RLatLon0.09_PT005H.grib2 2026-05-07 02:53 876K
20260506T18Z_MSC_RDPS_WindDir_IsbL-0925_RLatLon0.09_PT005H.grib2 2026-05-07 02:53 886K
20260506T18Z_MSC_RDPS_WindDir_IsbL-0950_RLatLon0.09_PT005H.grib2 2026-05-07 02:53 886K
20260506T18Z_MSC_RDPS_WindDir_IsbL-0970_RLatLon0.09_PT005H.grib2 2026-05-07 02:53 889K
20260506T18Z_MSC_RDPS_WindDir_IsbL-0985_RLatLon0.09_PT005H.grib2 2026-05-07 02:53 896K
20260506T18Z_MSC_RDPS_WindDir_IsbL-1000_RLatLon0.09_PT005H.grib2 2026-05-07 02:53 909K
20260506T18Z_MSC_RDPS_WindDir_IsbL-1015_RLatLon0.09_PT005H.grib2 2026-05-07 02:53 924K
20260506T18Z_MSC_RDPS_WindGust-Max_AGL-10m_RLatLon0.09_PT005H.grib2 2026-05-07 02:53 1.0M
20260506T18Z_MSC_RDPS_WindGust-Min_AGL-10m_RLatLon0.09_PT005H.grib2 2026-05-07 02:53 971K
20260506T18Z_MSC_RDPS_WindGust_AGL-10m_RLatLon0.09_PT005H.grib2 2026-05-07 02:53 1.0M
20260506T18Z_MSC_RDPS_WindSpeed_AGL-10m_RLatLon0.09_PT005H.grib2 2026-05-07 02:53 828K
20260506T18Z_MSC_RDPS_WindSpeed_AGL-120m_RLatLon0.09_PT005H.grib2 2026-05-07 02:53 527K
20260506T18Z_MSC_RDPS_WindSpeed_AGL-40m_RLatLon0.09_PT005H.grib2 2026-05-07 02:53 533K
20260506T18Z_MSC_RDPS_WindSpeed_AGL-80m_RLatLon0.09_PT005H.grib2 2026-05-07 02:53 528K
20260506T18Z_MSC_RDPS_WindSpeed_IsbL-0001_RLatLon0.09_PT005H.grib2 2026-05-07 02:53 249K
20260506T18Z_MSC_RDPS_WindSpeed_IsbL-0005_RLatLon0.09_PT005H.grib2 2026-05-07 02:53 283K
20260506T18Z_MSC_RDPS_WindSpeed_IsbL-0010_RLatLon0.09_PT005H.grib2 2026-05-07 02:53 293K
20260506T18Z_MSC_RDPS_WindSpeed_IsbL-0020_RLatLon0.09_PT005H.grib2 2026-05-07 02:53 305K
20260506T18Z_MSC_RDPS_WindSpeed_IsbL-0030_RLatLon0.09_PT005H.grib2 2026-05-07 02:53 303K
20260506T18Z_MSC_RDPS_WindSpeed_IsbL-0050_RLatLon0.09_PT005H.grib2 2026-05-07 02:53 334K
20260506T18Z_MSC_RDPS_WindSpeed_IsbL-0100_RLatLon0.09_PT005H.grib2 2026-05-07 02:53 425K
20260506T18Z_MSC_RDPS_WindSpeed_IsbL-0150_RLatLon0.09_PT005H.grib2 2026-05-07 02:53 394K
20260506T18Z_MSC_RDPS_WindSpeed_IsbL-0175_RLatLon0.09_PT005H.grib2 2026-05-07 02:53 420K
20260506T18Z_MSC_RDPS_WindSpeed_IsbL-0200_RLatLon0.09_PT005H.grib2 2026-05-07 02:53 435K
20260506T18Z_MSC_RDPS_WindSpeed_IsbL-0225_RLatLon0.09_PT005H.grib2 2026-05-07 02:53 438K
20260506T18Z_MSC_RDPS_WindSpeed_IsbL-0250_RLatLon0.09_PT005H.grib2 2026-05-07 02:53 439K
20260506T18Z_MSC_RDPS_WindSpeed_IsbL-0275_RLatLon0.09_PT005H.grib2 2026-05-07 02:53 457K
20260506T18Z_MSC_RDPS_WindSpeed_IsbL-0300_RLatLon0.09_PT005H.grib2 2026-05-07 02:53 457K
20260506T18Z_MSC_RDPS_WindSpeed_IsbL-0350_RLatLon0.09_PT005H.grib2 2026-05-07 02:53 471K
20260506T18Z_MSC_RDPS_WindSpeed_IsbL-0400_RLatLon0.09_PT005H.grib2 2026-05-07 02:53 475K
20260506T18Z_MSC_RDPS_WindSpeed_IsbL-0450_RLatLon0.09_PT005H.grib2 2026-05-07 02:53 455K
20260506T18Z_MSC_RDPS_WindSpeed_IsbL-0500_RLatLon0.09_PT005H.grib2 2026-05-07 02:53 456K
20260506T18Z_MSC_RDPS_WindSpeed_IsbL-0550_RLatLon0.09_PT005H.grib2 2026-05-07 02:53 459K
20260506T18Z_MSC_RDPS_WindSpeed_IsbL-0600_RLatLon0.09_PT005H.grib2 2026-05-07 02:53 586K
20260506T18Z_MSC_RDPS_WindSpeed_IsbL-0650_RLatLon0.09_PT005H.grib2 2026-05-07 02:53 609K
20260506T18Z_MSC_RDPS_WindSpeed_IsbL-0700_RLatLon0.09_PT005H.grib2 2026-05-07 02:53 637K
20260506T18Z_MSC_RDPS_WindSpeed_IsbL-0750_RLatLon0.09_PT005H.grib2 2026-05-07 02:53 713K
20260506T18Z_MSC_RDPS_WindSpeed_IsbL-0800_RLatLon0.09_PT005H.grib2 2026-05-07 02:53 760K
20260506T18Z_MSC_RDPS_WindSpeed_IsbL-0850_RLatLon0.09_PT005H.grib2 2026-05-07 02:53 814K
20260506T18Z_MSC_RDPS_WindSpeed_IsbL-0875_RLatLon0.09_PT005H.grib2 2026-05-07 02:53 832K
20260506T18Z_MSC_RDPS_WindSpeed_IsbL-0900_RLatLon0.09_PT005H.grib2 2026-05-07 02:53 846K
20260506T18Z_MSC_RDPS_WindSpeed_IsbL-0925_RLatLon0.09_PT005H.grib2 2026-05-07 02:53 857K
20260506T18Z_MSC_RDPS_WindSpeed_IsbL-0950_RLatLon0.09_PT005H.grib2 2026-05-07 02:53 859K
20260506T18Z_MSC_RDPS_WindSpeed_IsbL-0970_RLatLon0.09_PT005H.grib2 2026-05-07 02:53 852K
20260506T18Z_MSC_RDPS_WindSpeed_IsbL-0985_RLatLon0.09_PT005H.grib2 2026-05-07 02:53 847K
20260506T18Z_MSC_RDPS_WindSpeed_IsbL-1000_RLatLon0.09_PT005H.grib2 2026-05-07 02:53 840K
20260506T18Z_MSC_RDPS_WindSpeed_IsbL-1015_RLatLon0.09_PT005H.grib2 2026-05-07 02:53 830K
20260506T18Z_MSC_RDPS_WindU_AGL-10m_RLatLon0.09_PT005H.grib2 2026-05-07 02:53 430K
20260506T18Z_MSC_RDPS_WindU_AGL-120m_RLatLon0.09_PT005H.grib2 2026-05-07 02:53 411K
20260506T18Z_MSC_RDPS_WindU_AGL-40m_RLatLon0.09_PT005H.grib2 2026-05-07 02:53 532K
20260506T18Z_MSC_RDPS_WindU_AGL-80m_RLatLon0.09_PT005H.grib2 2026-05-07 02:53 528K
20260506T18Z_MSC_RDPS_WindU_IsbL-0001_RLatLon0.09_PT005H.grib2 2026-05-07 02:53 238K
20260506T18Z_MSC_RDPS_WindU_IsbL-0005_RLatLon0.09_PT005H.grib2 2026-05-07 02:53 319K
20260506T18Z_MSC_RDPS_WindU_IsbL-0010_RLatLon0.09_PT005H.grib2 2026-05-07 02:53 285K
20260506T18Z_MSC_RDPS_WindU_IsbL-0020_RLatLon0.09_PT005H.grib2 2026-05-07 02:53 299K
20260506T18Z_MSC_RDPS_WindU_IsbL-0030_RLatLon0.09_PT005H.grib2 2026-05-07 02:53 338K
20260506T18Z_MSC_RDPS_WindU_IsbL-0050_RLatLon0.09_PT005H.grib2 2026-05-07 02:53 365K
20260506T18Z_MSC_RDPS_WindU_IsbL-0100_RLatLon0.09_PT005H.grib2 2026-05-07 02:53 325K
20260506T18Z_MSC_RDPS_WindU_IsbL-0150_RLatLon0.09_PT005H.grib2 2026-05-07 02:53 389K
20260506T18Z_MSC_RDPS_WindU_IsbL-0175_RLatLon0.09_PT005H.grib2 2026-05-07 02:53 413K
20260506T18Z_MSC_RDPS_WindU_IsbL-0200_RLatLon0.09_PT005H.grib2 2026-05-07 02:53 332K
20260506T18Z_MSC_RDPS_WindU_IsbL-0225_RLatLon0.09_PT005H.grib2 2026-05-07 02:53 333K
20260506T18Z_MSC_RDPS_WindU_IsbL-0250_RLatLon0.09_PT005H.grib2 2026-05-07 02:53 332K
20260506T18Z_MSC_RDPS_WindU_IsbL-0275_RLatLon0.09_PT005H.grib2 2026-05-07 02:53 373K
20260506T18Z_MSC_RDPS_WindU_IsbL-0300_RLatLon0.09_PT005H.grib2 2026-05-07 02:53 346K
20260506T18Z_MSC_RDPS_WindU_IsbL-0350_RLatLon0.09_PT005H.grib2 2026-05-07 02:53 357K
20260506T18Z_MSC_RDPS_WindU_IsbL-0400_RLatLon0.09_PT005H.grib2 2026-05-07 02:53 462K
20260506T18Z_MSC_RDPS_WindU_IsbL-0450_RLatLon0.09_PT005H.grib2 2026-05-07 02:53 461K
20260506T18Z_MSC_RDPS_WindU_IsbL-0500_RLatLon0.09_PT005H.grib2 2026-05-07 02:53 462K
20260506T18Z_MSC_RDPS_WindU_IsbL-0550_RLatLon0.09_PT005H.grib2 2026-05-07 02:53 466K
20260506T18Z_MSC_RDPS_WindU_IsbL-0600_RLatLon0.09_PT005H.grib2 2026-05-07 02:53 475K
20260506T18Z_MSC_RDPS_WindU_IsbL-0650_RLatLon0.09_PT005H.grib2 2026-05-07 02:53 496K
20260506T18Z_MSC_RDPS_WindU_IsbL-0700_RLatLon0.09_PT005H.grib2 2026-05-07 02:53 519K
20260506T18Z_MSC_RDPS_WindU_IsbL-0750_RLatLon0.09_PT005H.grib2 2026-05-07 02:53 547K
20260506T18Z_MSC_RDPS_WindU_IsbL-0800_RLatLon0.09_PT005H.grib2 2026-05-07 02:53 586K
20260506T18Z_MSC_RDPS_WindU_IsbL-0850_RLatLon0.09_PT005H.grib2 2026-05-07 02:53 622K
20260506T18Z_MSC_RDPS_WindU_IsbL-0875_RLatLon0.09_PT005H.grib2 2026-05-07 02:53 637K
20260506T18Z_MSC_RDPS_WindU_IsbL-0900_RLatLon0.09_PT005H.grib2 2026-05-07 02:53 655K
20260506T18Z_MSC_RDPS_WindU_IsbL-0925_RLatLon0.09_PT005H.grib2 2026-05-07 02:53 661K
20260506T18Z_MSC_RDPS_WindU_IsbL-0950_RLatLon0.09_PT005H.grib2 2026-05-07 02:53 652K
20260506T18Z_MSC_RDPS_WindU_IsbL-0970_RLatLon0.09_PT005H.grib2 2026-05-07 02:53 648K
20260506T18Z_MSC_RDPS_WindU_IsbL-0985_RLatLon0.09_PT005H.grib2 2026-05-07 02:53 645K
20260506T18Z_MSC_RDPS_WindU_IsbL-1000_RLatLon0.09_PT005H.grib2 2026-05-07 02:53 641K
20260506T18Z_MSC_RDPS_WindU_IsbL-1015_RLatLon0.09_PT005H.grib2 2026-05-07 02:53 772K
20260506T18Z_MSC_RDPS_WindV_AGL-10m_RLatLon0.09_PT005H.grib2 2026-05-07 02:53 427K
20260506T18Z_MSC_RDPS_WindV_AGL-120m_RLatLon0.09_PT005H.grib2 2026-05-07 02:53 409K
20260506T18Z_MSC_RDPS_WindV_AGL-40m_RLatLon0.09_PT005H.grib2 2026-05-07 02:53 528K
20260506T18Z_MSC_RDPS_WindV_AGL-80m_RLatLon0.09_PT005H.grib2 2026-05-07 02:53 410K
20260506T18Z_MSC_RDPS_WindV_IsbL-0001_RLatLon0.09_PT005H.grib2 2026-05-07 02:53 289K
20260506T18Z_MSC_RDPS_WindV_IsbL-0005_RLatLon0.09_PT005H.grib2 2026-05-07 02:53 277K
20260506T18Z_MSC_RDPS_WindV_IsbL-0010_RLatLon0.09_PT005H.grib2 2026-05-07 02:53 285K
20260506T18Z_MSC_RDPS_WindV_IsbL-0020_RLatLon0.09_PT005H.grib2 2026-05-07 02:53 341K
20260506T18Z_MSC_RDPS_WindV_IsbL-0030_RLatLon0.09_PT005H.grib2 2026-05-07 02:53 299K
20260506T18Z_MSC_RDPS_WindV_IsbL-0050_RLatLon0.09_PT005H.grib2 2026-05-07 02:53 326K
20260506T18Z_MSC_RDPS_WindV_IsbL-0100_RLatLon0.09_PT005H.grib2 2026-05-07 02:53 412K
20260506T18Z_MSC_RDPS_WindV_IsbL-0150_RLatLon0.09_PT005H.grib2 2026-05-07 02:53 385K
20260506T18Z_MSC_RDPS_WindV_IsbL-0175_RLatLon0.09_PT005H.grib2 2026-05-07 02:53 410K
20260506T18Z_MSC_RDPS_WindV_IsbL-0200_RLatLon0.09_PT005H.grib2 2026-05-07 02:53 426K
20260506T18Z_MSC_RDPS_WindV_IsbL-0225_RLatLon0.09_PT005H.grib2 2026-05-07 02:53 332K
20260506T18Z_MSC_RDPS_WindV_IsbL-0250_RLatLon0.09_PT005H.grib2 2026-05-07 02:53 332K
20260506T18Z_MSC_RDPS_WindV_IsbL-0275_RLatLon0.09_PT005H.grib2 2026-05-07 02:53 346K
20260506T18Z_MSC_RDPS_WindV_IsbL-0300_RLatLon0.09_PT005H.grib2 2026-05-07 02:53 345K
20260506T18Z_MSC_RDPS_WindV_IsbL-0350_RLatLon0.09_PT005H.grib2 2026-05-07 02:53 356K
20260506T18Z_MSC_RDPS_WindV_IsbL-0400_RLatLon0.09_PT005H.grib2 2026-05-07 02:53 359K
20260506T18Z_MSC_RDPS_WindV_IsbL-0450_RLatLon0.09_PT005H.grib2 2026-05-07 02:53 460K
20260506T18Z_MSC_RDPS_WindV_IsbL-0500_RLatLon0.09_PT005H.grib2 2026-05-07 02:53 461K
20260506T18Z_MSC_RDPS_WindV_IsbL-0550_RLatLon0.09_PT005H.grib2 2026-05-07 02:53 463K
20260506T18Z_MSC_RDPS_WindV_IsbL-0600_RLatLon0.09_PT005H.grib2 2026-05-07 02:53 474K
20260506T18Z_MSC_RDPS_WindV_IsbL-0650_RLatLon0.09_PT005H.grib2 2026-05-07 02:53 493K
20260506T18Z_MSC_RDPS_WindV_IsbL-0700_RLatLon0.09_PT005H.grib2 2026-05-07 02:53 516K
20260506T18Z_MSC_RDPS_WindV_IsbL-0750_RLatLon0.09_PT005H.grib2 2026-05-07 02:53 543K
20260506T18Z_MSC_RDPS_WindV_IsbL-0800_RLatLon0.09_PT005H.grib2 2026-05-07 02:53 568K
20260506T18Z_MSC_RDPS_WindV_IsbL-0850_RLatLon0.09_PT005H.grib2 2026-05-07 02:53 615K
20260506T18Z_MSC_RDPS_WindV_IsbL-0875_RLatLon0.09_PT005H.grib2 2026-05-07 02:53 639K
20260506T18Z_MSC_RDPS_WindV_IsbL-0900_RLatLon0.09_PT005H.grib2 2026-05-07 02:53 649K
20260506T18Z_MSC_RDPS_WindV_IsbL-0925_RLatLon0.09_PT005H.grib2 2026-05-07 02:53 650K
20260506T18Z_MSC_RDPS_WindV_IsbL-0950_RLatLon0.09_PT005H.grib2 2026-05-07 02:53 649K
20260506T18Z_MSC_RDPS_WindV_IsbL-0970_RLatLon0.09_PT005H.grib2 2026-05-07 02:53 645K
20260506T18Z_MSC_RDPS_WindV_IsbL-0985_RLatLon0.09_PT005H.grib2 2026-05-07 02:53 642K
20260506T18Z_MSC_RDPS_WindV_IsbL-1000_RLatLon0.09_PT005H.grib2 2026-05-07 02:53 774K
20260506T18Z_MSC_RDPS_WindV_IsbL-1015_RLatLon0.09_PT005H.grib2 2026-05-07 02:53 767K
20260507T18Z_MSC_RDPS_AbsoluteVorticity_IsbL-0250_RLatLon0.09_PT005H.grib2 2026-05-07 20:43 587K
20260507T18Z_MSC_RDPS_AbsoluteVorticity_IsbL-0500_RLatLon0.09_PT005H.grib2 2026-05-07 20:43 553K
20260507T18Z_MSC_RDPS_AbsoluteVorticity_IsbL-0700_RLatLon0.09_PT005H.grib2 2026-05-07 20:43 621K
20260507T18Z_MSC_RDPS_AbsoluteVorticity_IsbL-0850_RLatLon0.09_PT005H.grib2 2026-05-07 20:43 778K
20260507T18Z_MSC_RDPS_AirTemp_AGL-120m_RLatLon0.09_PT005H.grib2 2026-05-07 20:43 370K
20260507T18Z_MSC_RDPS_AirTemp_AGL-2m_RLatLon0.09_PT005H.grib2 2026-05-07 20:43 618K
20260507T18Z_MSC_RDPS_AirTemp_AGL-40m_RLatLon0.09_PT005H.grib2 2026-05-07 20:43 380K
20260507T18Z_MSC_RDPS_AirTemp_AGL-80m_RLatLon0.09_PT005H.grib2 2026-05-07 20:43 374K
20260507T18Z_MSC_RDPS_AirTemp_IsbL-0001_RLatLon0.09_PT005H.grib2 2026-05-07 20:43 308K
20260507T18Z_MSC_RDPS_AirTemp_IsbL-0005_RLatLon0.09_PT005H.grib2 2026-05-07 20:43 277K
20260507T18Z_MSC_RDPS_AirTemp_IsbL-0010_RLatLon0.09_PT005H.grib2 2026-05-07 20:43 376K
20260507T18Z_MSC_RDPS_AirTemp_IsbL-0020_RLatLon0.09_PT005H.grib2 2026-05-07 20:43 306K
20260507T18Z_MSC_RDPS_AirTemp_IsbL-0030_RLatLon0.09_PT005H.grib2 2026-05-07 20:43 322K
20260507T18Z_MSC_RDPS_AirTemp_IsbL-0050_RLatLon0.09_PT005H.grib2 2026-05-07 20:43 298K
20260507T18Z_MSC_RDPS_AirTemp_IsbL-0100_RLatLon0.09_PT005H.grib2 2026-05-07 20:43 410K
20260507T18Z_MSC_RDPS_AirTemp_IsbL-0150_RLatLon0.09_PT005H.grib2 2026-05-07 20:43 404K
20260507T18Z_MSC_RDPS_AirTemp_IsbL-0175_RLatLon0.09_PT005H.grib2 2026-05-07 20:43 398K
20260507T18Z_MSC_RDPS_AirTemp_IsbL-0200_RLatLon0.09_PT005H.grib2 2026-05-07 20:43 405K
20260507T18Z_MSC_RDPS_AirTemp_IsbL-0225_RLatLon0.09_PT005H.grib2 2026-05-07 20:43 406K
20260507T18Z_MSC_RDPS_AirTemp_IsbL-0250_RLatLon0.09_PT005H.grib2 2026-05-07 20:43 412K
20260507T18Z_MSC_RDPS_AirTemp_IsbL-0275_RLatLon0.09_PT005H.grib2 2026-05-07 20:43 395K
20260507T18Z_MSC_RDPS_AirTemp_IsbL-0300_RLatLon0.09_PT005H.grib2 2026-05-07 20:43 404K
20260507T18Z_MSC_RDPS_AirTemp_IsbL-0350_RLatLon0.09_PT005H.grib2 2026-05-07 20:43 418K
20260507T18Z_MSC_RDPS_AirTemp_IsbL-0400_RLatLon0.09_PT005H.grib2 2026-05-07 20:43 421K
20260507T18Z_MSC_RDPS_AirTemp_IsbL-0450_RLatLon0.09_PT005H.grib2 2026-05-07 20:43 432K
20260507T18Z_MSC_RDPS_AirTemp_IsbL-0500_RLatLon0.09_PT005H.grib2 2026-05-07 20:43 409K
20260507T18Z_MSC_RDPS_AirTemp_IsbL-0550_RLatLon0.09_PT005H.grib2 2026-05-07 20:43 425K
20260507T18Z_MSC_RDPS_AirTemp_IsbL-0600_RLatLon0.09_PT005H.grib2 2026-05-07 20:43 444K
20260507T18Z_MSC_RDPS_AirTemp_IsbL-0650_RLatLon0.09_PT005H.grib2 2026-05-07 20:43 462K
20260507T18Z_MSC_RDPS_AirTemp_IsbL-0700_RLatLon0.09_PT005H.grib2 2026-05-07 20:43 489K
20260507T18Z_MSC_RDPS_AirTemp_IsbL-0750_RLatLon0.09_PT005H.grib2 2026-05-07 20:43 526K
20260507T18Z_MSC_RDPS_AirTemp_IsbL-0800_RLatLon0.09_PT005H.grib2 2026-05-07 20:43 452K
20260507T18Z_MSC_RDPS_AirTemp_IsbL-0850_RLatLon0.09_PT005H.grib2 2026-05-07 20:43 492K
20260507T18Z_MSC_RDPS_AirTemp_IsbL-0875_RLatLon0.09_PT005H.grib2 2026-05-07 20:43 508K
20260507T18Z_MSC_RDPS_AirTemp_IsbL-0900_RLatLon0.09_PT005H.grib2 2026-05-07 20:43 517K
20260507T18Z_MSC_RDPS_AirTemp_IsbL-0925_RLatLon0.09_PT005H.grib2 2026-05-07 20:43 521K
20260507T18Z_MSC_RDPS_AirTemp_IsbL-0950_RLatLon0.09_PT005H.grib2 2026-05-07 20:43 518K
20260507T18Z_MSC_RDPS_AirTemp_IsbL-0970_RLatLon0.09_PT005H.grib2 2026-05-07 20:43 512K
20260507T18Z_MSC_RDPS_AirTemp_IsbL-0985_RLatLon0.09_PT005H.grib2 2026-05-07 20:43 500K
20260507T18Z_MSC_RDPS_AirTemp_IsbL-1000_RLatLon0.09_PT005H.grib2 2026-05-07 20:43 490K
20260507T18Z_MSC_RDPS_AirTemp_IsbL-1015_RLatLon0.09_PT005H.grib2 2026-05-07 20:43 501K
20260507T18Z_MSC_RDPS_Albedo_Sfc_RLatLon0.09_PT005H.grib2 2026-05-07 20:43 152K
20260507T18Z_MSC_RDPS_CAPE_Sfc_RLatLon0.09_PT005H.grib2 2026-05-07 20:43 1.7M
20260507T18Z_MSC_RDPS_CIN_Sfc_RLatLon0.09_PT005H.grib2 2026-05-07 20:43 1.4M
20260507T18Z_MSC_RDPS_CloudWater_EAtm_RLatLon0.09_PT005H.grib2 2026-05-07 20:43 225K
20260507T18Z_MSC_RDPS_ConvectivePrecip-Accum_Sfc_RLatLon0.09_PT005H.grib2 2026-05-07 20:43 530K
20260507T18Z_MSC_RDPS_DewPointDepression_AGL-2m_RLatLon0.09_PT005H.grib2 2026-05-07 20:43 416K
20260507T18Z_MSC_RDPS_DewPointDepression_IsbL-0001_RLatLon0.09_PT005H.grib2 2026-05-07 20:43 193
20260507T18Z_MSC_RDPS_DewPointDepression_IsbL-0005_RLatLon0.09_PT005H.grib2 2026-05-07 20:43 193
20260507T18Z_MSC_RDPS_DewPointDepression_IsbL-0010_RLatLon0.09_PT005H.grib2 2026-05-07 20:43 193
20260507T18Z_MSC_RDPS_DewPointDepression_IsbL-0020_RLatLon0.09_PT005H.grib2 2026-05-07 20:43 193
20260507T18Z_MSC_RDPS_DewPointDepression_IsbL-0030_RLatLon0.09_PT005H.grib2 2026-05-07 20:43 610
20260507T18Z_MSC_RDPS_DewPointDepression_IsbL-0050_RLatLon0.09_PT005H.grib2 2026-05-07 20:43 80K
20260507T18Z_MSC_RDPS_DewPointDepression_IsbL-0100_RLatLon0.09_PT005H.grib2 2026-05-07 20:43 111K
20260507T18Z_MSC_RDPS_DewPointDepression_IsbL-0150_RLatLon0.09_PT005H.grib2 2026-05-07 20:43 139K
20260507T18Z_MSC_RDPS_DewPointDepression_IsbL-0175_RLatLon0.09_PT005H.grib2 2026-05-07 20:43 177K
20260507T18Z_MSC_RDPS_DewPointDepression_IsbL-0200_RLatLon0.09_PT005H.grib2 2026-05-07 20:43 222K
20260507T18Z_MSC_RDPS_DewPointDepression_IsbL-0225_RLatLon0.09_PT005H.grib2 2026-05-07 20:43 254K
20260507T18Z_MSC_RDPS_DewPointDepression_IsbL-0250_RLatLon0.09_PT005H.grib2 2026-05-07 20:43 300K
20260507T18Z_MSC_RDPS_DewPointDepression_IsbL-0275_RLatLon0.09_PT005H.grib2 2026-05-07 20:43 313K
20260507T18Z_MSC_RDPS_DewPointDepression_IsbL-0300_RLatLon0.09_PT005H.grib2 2026-05-07 20:43 330K
20260507T18Z_MSC_RDPS_DewPointDepression_IsbL-0350_RLatLon0.09_PT005H.grib2 2026-05-07 20:43 331K
20260507T18Z_MSC_RDPS_DewPointDepression_IsbL-0400_RLatLon0.09_PT005H.grib2 2026-05-07 20:43 338K
20260507T18Z_MSC_RDPS_DewPointDepression_IsbL-0450_RLatLon0.09_PT005H.grib2 2026-05-07 20:43 345K
20260507T18Z_MSC_RDPS_DewPointDepression_IsbL-0500_RLatLon0.09_PT005H.grib2 2026-05-07 20:43 348K
20260507T18Z_MSC_RDPS_DewPointDepression_IsbL-0550_RLatLon0.09_PT005H.grib2 2026-05-07 20:43 359K
20260507T18Z_MSC_RDPS_DewPointDepression_IsbL-0600_RLatLon0.09_PT005H.grib2 2026-05-07 20:43 372K
20260507T18Z_MSC_RDPS_DewPointDepression_IsbL-0650_RLatLon0.09_PT005H.grib2 2026-05-07 20:43 378K
20260507T18Z_MSC_RDPS_DewPointDepression_IsbL-0700_RLatLon0.09_PT005H.grib2 2026-05-07 20:43 395K
20260507T18Z_MSC_RDPS_DewPointDepression_IsbL-0750_RLatLon0.09_PT005H.grib2 2026-05-07 20:43 420K
20260507T18Z_MSC_RDPS_DewPointDepression_IsbL-0800_RLatLon0.09_PT005H.grib2 2026-05-07 20:43 455K
20260507T18Z_MSC_RDPS_DewPointDepression_IsbL-0850_RLatLon0.09_PT005H.grib2 2026-05-07 20:43 476K
20260507T18Z_MSC_RDPS_DewPointDepression_IsbL-0875_RLatLon0.09_PT005H.grib2 2026-05-07 20:43 474K
20260507T18Z_MSC_RDPS_DewPointDepression_IsbL-0900_RLatLon0.09_PT005H.grib2 2026-05-07 20:43 468K
20260507T18Z_MSC_RDPS_DewPointDepression_IsbL-0925_RLatLon0.09_PT005H.grib2 2026-05-07 20:43 455K
20260507T18Z_MSC_RDPS_DewPointDepression_IsbL-0950_RLatLon0.09_PT005H.grib2 2026-05-07 20:43 442K
20260507T18Z_MSC_RDPS_DewPointDepression_IsbL-0970_RLatLon0.09_PT005H.grib2 2026-05-07 20:43 436K
20260507T18Z_MSC_RDPS_DewPointDepression_IsbL-0985_RLatLon0.09_PT005H.grib2 2026-05-07 20:43 431K
20260507T18Z_MSC_RDPS_DewPointDepression_IsbL-1000_RLatLon0.09_PT005H.grib2 2026-05-07 20:43 428K
20260507T18Z_MSC_RDPS_DewPointDepression_IsbL-1015_RLatLon0.09_PT005H.grib2 2026-05-07 20:43 417K
20260507T18Z_MSC_RDPS_DewPoint_AGL-2m_RLatLon0.09_PT005H.grib2 2026-05-07 20:43 398K
20260507T18Z_MSC_RDPS_DownwardLongwaveRadiationFlux-Accum_Sfc_RLatLon0.09_PT005H.grib2 2026-05-07 20:43 479K
20260507T18Z_MSC_RDPS_DownwardShortwaveRadiationFlux-Accum_NTAtm_RLatLon0.09_PT005H.grib2 2026-05-07 20:43 100K
20260507T18Z_MSC_RDPS_DownwardShortwaveRadiationFlux-Accum_Sfc_RLatLon0.09_PT005H.grib2 2026-05-07 20:43 594K
20260507T18Z_MSC_RDPS_FreezingRain-Accum1h_Sfc_RLatLon0.09_PT005H.grib2 2026-05-07 20:43 16K
20260507T18Z_MSC_RDPS_FreezingRain-Accum_Sfc_RLatLon0.09_PT005H.grib2 2026-05-07 20:43 33K
20260507T18Z_MSC_RDPS_GeopotentialHeight_IsbL-0001_RLatLon0.09_PT005H.grib2 2026-05-07 20:43 342K
20260507T18Z_MSC_RDPS_GeopotentialHeight_IsbL-0005_RLatLon0.09_PT005H.grib2 2026-05-07 20:43 334K
20260507T18Z_MSC_RDPS_GeopotentialHeight_IsbL-0010_RLatLon0.09_PT005H.grib2 2026-05-07 20:43 335K
20260507T18Z_MSC_RDPS_GeopotentialHeight_IsbL-0020_RLatLon0.09_PT005H.grib2 2026-05-07 20:43 301K
20260507T18Z_MSC_RDPS_GeopotentialHeight_IsbL-0030_RLatLon0.09_PT005H.grib2 2026-05-07 20:43 398K
20260507T18Z_MSC_RDPS_GeopotentialHeight_IsbL-0050_RLatLon0.09_PT005H.grib2 2026-05-07 20:43 304K
20260507T18Z_MSC_RDPS_GeopotentialHeight_IsbL-0100_RLatLon0.09_PT005H.grib2 2026-05-07 20:43 286K
20260507T18Z_MSC_RDPS_GeopotentialHeight_IsbL-0150_RLatLon0.09_PT005H.grib2 2026-05-07 20:43 228K
20260507T18Z_MSC_RDPS_GeopotentialHeight_IsbL-0175_RLatLon0.09_PT005H.grib2 2026-05-07 20:43 231K
20260507T18Z_MSC_RDPS_GeopotentialHeight_IsbL-0200_RLatLon0.09_PT005H.grib2 2026-05-07 20:43 265K
20260507T18Z_MSC_RDPS_GeopotentialHeight_IsbL-0225_RLatLon0.09_PT005H.grib2 2026-05-07 20:43 267K
20260507T18Z_MSC_RDPS_GeopotentialHeight_IsbL-0250_RLatLon0.09_PT005H.grib2 2026-05-07 20:43 267K
20260507T18Z_MSC_RDPS_GeopotentialHeight_IsbL-0275_RLatLon0.09_PT005H.grib2 2026-05-07 20:43 266K
20260507T18Z_MSC_RDPS_GeopotentialHeight_IsbL-0300_RLatLon0.09_PT005H.grib2 2026-05-07 20:43 235K
20260507T18Z_MSC_RDPS_GeopotentialHeight_IsbL-0350_RLatLon0.09_PT005H.grib2 2026-05-07 20:43 231K
20260507T18Z_MSC_RDPS_GeopotentialHeight_IsbL-0400_RLatLon0.09_PT005H.grib2 2026-05-07 20:43 227K
20260507T18Z_MSC_RDPS_GeopotentialHeight_IsbL-0450_RLatLon0.09_PT005H.grib2 2026-05-07 20:43 295K
20260507T18Z_MSC_RDPS_GeopotentialHeight_IsbL-0500_RLatLon0.09_PT005H.grib2 2026-05-07 20:43 290K
20260507T18Z_MSC_RDPS_GeopotentialHeight_IsbL-0550_RLatLon0.09_PT005H.grib2 2026-05-07 20:43 287K
20260507T18Z_MSC_RDPS_GeopotentialHeight_IsbL-0600_RLatLon0.09_PT005H.grib2 2026-05-07 20:43 283K
20260507T18Z_MSC_RDPS_GeopotentialHeight_IsbL-0650_RLatLon0.09_PT005H.grib2 2026-05-07 20:43 254K
20260507T18Z_MSC_RDPS_GeopotentialHeight_IsbL-0700_RLatLon0.09_PT005H.grib2 2026-05-07 20:43 334K
20260507T18Z_MSC_RDPS_GeopotentialHeight_IsbL-0750_RLatLon0.09_PT005H.grib2 2026-05-07 20:43 337K
20260507T18Z_MSC_RDPS_GeopotentialHeight_IsbL-0800_RLatLon0.09_PT005H.grib2 2026-05-07 20:43 374K
20260507T18Z_MSC_RDPS_GeopotentialHeight_IsbL-0850_RLatLon0.09_PT005H.grib2 2026-05-07 20:43 381K
20260507T18Z_MSC_RDPS_GeopotentialHeight_IsbL-0875_RLatLon0.09_PT005H.grib2 2026-05-07 20:43 384K
20260507T18Z_MSC_RDPS_GeopotentialHeight_IsbL-0900_RLatLon0.09_PT005H.grib2 2026-05-07 20:43 388K
20260507T18Z_MSC_RDPS_GeopotentialHeight_IsbL-0925_RLatLon0.09_PT005H.grib2 2026-05-07 20:43 392K
20260507T18Z_MSC_RDPS_GeopotentialHeight_IsbL-0950_RLatLon0.09_PT005H.grib2 2026-05-07 20:43 395K
20260507T18Z_MSC_RDPS_GeopotentialHeight_IsbL-0970_RLatLon0.09_PT005H.grib2 2026-05-07 20:43 401K
20260507T18Z_MSC_RDPS_GeopotentialHeight_IsbL-0985_RLatLon0.09_PT005H.grib2 2026-05-07 20:43 410K
20260507T18Z_MSC_RDPS_GeopotentialHeight_IsbL-1000_RLatLon0.09_PT005H.grib2 2026-05-07 20:43 422K
20260507T18Z_MSC_RDPS_GeopotentialHeight_IsbL-1015_RLatLon0.09_PT005H.grib2 2026-05-07 20:43 437K
20260507T18Z_MSC_RDPS_HighLowPressure_MSL_RLatLon0.09_PT005H.json 2026-05-07 20:35 21K
20260507T18Z_MSC_RDPS_Humidex_Sfc_RLatLon0.09_PT005H.grib2 2026-05-07 20:43 2.4M
20260507T18Z_MSC_RDPS_IcePellets-Accum1h_Sfc_RLatLon0.09_PT005H.grib2 2026-05-07 20:43 5.6K
20260507T18Z_MSC_RDPS_IcePellets-Accum_Sfc_RLatLon0.09_PT005H.grib2 2026-05-07 20:43 7.1K
20260507T18Z_MSC_RDPS_KIndex_Sfc_RLatLon0.09_PT005H.grib2 2026-05-07 20:43 2.4M
20260507T18Z_MSC_RDPS_LatentHeatNetFlux_Sfc_RLatLon0.09_PT005H.grib2 2026-05-07 20:43 287K
20260507T18Z_MSC_RDPS_LiftedIndex-MU-VT_IsbL-0500_RLatLon0.09_PT005H.grib2 2026-05-07 20:43 2.4M
20260507T18Z_MSC_RDPS_NetLongwaveRadiationFlux-Accum_Sfc_RLatLon0.09_PT005H.grib2 2026-05-07 20:43 504K
20260507T18Z_MSC_RDPS_NetShortwaveRadiationFlux-Accum_Sfc_RLatLon0.09_PT005H.grib2 2026-05-07 20:43 583K
20260507T18Z_MSC_RDPS_PlanetaryBoundaryLayerHeight_Sfc_RLatLon0.09_PT005H.grib2 2026-05-07 20:43 1.0M
20260507T18Z_MSC_RDPS_Precip-Accum1h_Sfc_RLatLon0.09_PT005H.grib2 2026-05-07 20:43 1.2M
20260507T18Z_MSC_RDPS_Precip-Accum_Sfc_RLatLon0.09_PT005H.grib2 2026-05-07 20:43 1.4M
20260507T18Z_MSC_RDPS_PrecipRate_Sfc_RLatLon0.09_PT005H.grib2 2026-05-07 20:43 186K
20260507T18Z_MSC_RDPS_PrecipType-Instant_Sfc_RLatLon0.09_PT005H.grib2 2026-05-07 20:43 568K
20260507T18Z_MSC_RDPS_Pressure-Trend3h_Sfc_RLatLon0.09_PT005H.grib2 2026-05-07 20:43 1.2M
20260507T18Z_MSC_RDPS_Pressure_MSL_RLatLon0.09_PT005H.grib2 2026-05-07 20:43 323K
20260507T18Z_MSC_RDPS_Pressure_PVU-1.5_RLatLon0.09_PT005H.grib2 2026-05-07 20:43 2.5M
20260507T18Z_MSC_RDPS_Pressure_PVU-1_RLatLon0.09_PT005H.grib2 2026-05-07 20:43 2.4M
20260507T18Z_MSC_RDPS_Pressure_PVU-2_RLatLon0.09_PT005H.grib2 2026-05-07 20:43 2.4M
20260507T18Z_MSC_RDPS_Pressure_Sfc_RLatLon0.09_PT005H.grib2 2026-05-07 20:43 497K
20260507T18Z_MSC_RDPS_RadiativeTemp_Sfc_RLatLon0.09_PT005H.grib2 2026-05-07 20:43 317K
20260507T18Z_MSC_RDPS_Rain-Accum1h_Sfc_RLatLon0.09_PT005H.grib2 2026-05-07 20:43 609K
20260507T18Z_MSC_RDPS_Rain-Accum_Sfc_RLatLon0.09_PT005H.grib2 2026-05-07 20:43 1.1M
20260507T18Z_MSC_RDPS_RelativeHumidity_AGL-2m_RLatLon0.09_PT005H.grib2 2026-05-07 20:43 1.0M
20260507T18Z_MSC_RDPS_RelativeHumidity_IsbL-0010_RLatLon0.09_PT005H.grib2 2026-05-07 20:43 590K
20260507T18Z_MSC_RDPS_RelativeHumidity_IsbL-0020_RLatLon0.09_PT005H.grib2 2026-05-07 20:43 649K
20260507T18Z_MSC_RDPS_RelativeHumidity_IsbL-0030_RLatLon0.09_PT005H.grib2 2026-05-07 20:43 596K
20260507T18Z_MSC_RDPS_RelativeHumidity_IsbL-0050_RLatLon0.09_PT005H.grib2 2026-05-07 20:43 351K
20260507T18Z_MSC_RDPS_RelativeHumidity_IsbL-0100_RLatLon0.09_PT005H.grib2 2026-05-07 20:43 278K
20260507T18Z_MSC_RDPS_RelativeHumidity_IsbL-0150_RLatLon0.09_PT005H.grib2 2026-05-07 20:43 413K
20260507T18Z_MSC_RDPS_RelativeHumidity_IsbL-0175_RLatLon0.09_PT005H.grib2 2026-05-07 20:43 466K
20260507T18Z_MSC_RDPS_RelativeHumidity_IsbL-0200_RLatLon0.09_PT005H.grib2 2026-05-07 20:43 541K
20260507T18Z_MSC_RDPS_RelativeHumidity_IsbL-0225_RLatLon0.09_PT005H.grib2 2026-05-07 20:43 605K
20260507T18Z_MSC_RDPS_RelativeHumidity_IsbL-0250_RLatLon0.09_PT005H.grib2 2026-05-07 20:43 663K
20260507T18Z_MSC_RDPS_RelativeHumidity_IsbL-0275_RLatLon0.09_PT005H.grib2 2026-05-07 20:43 695K
20260507T18Z_MSC_RDPS_RelativeHumidity_IsbL-0300_RLatLon0.09_PT005H.grib2 2026-05-07 20:43 741K
20260507T18Z_MSC_RDPS_RelativeHumidity_IsbL-0350_RLatLon0.09_PT005H.grib2 2026-05-07 20:43 758K
20260507T18Z_MSC_RDPS_RelativeHumidity_IsbL-0400_RLatLon0.09_PT005H.grib2 2026-05-07 20:43 777K
20260507T18Z_MSC_RDPS_RelativeHumidity_IsbL-0450_RLatLon0.09_PT005H.grib2 2026-05-07 20:43 785K
20260507T18Z_MSC_RDPS_RelativeHumidity_IsbL-0500_RLatLon0.09_PT005H.grib2 2026-05-07 20:43 804K
20260507T18Z_MSC_RDPS_RelativeHumidity_IsbL-0550_RLatLon0.09_PT005H.grib2 2026-05-07 20:43 823K
20260507T18Z_MSC_RDPS_RelativeHumidity_IsbL-0600_RLatLon0.09_PT005H.grib2 2026-05-07 20:43 844K
20260507T18Z_MSC_RDPS_RelativeHumidity_IsbL-0650_RLatLon0.09_PT005H.grib2 2026-05-07 20:43 862K
20260507T18Z_MSC_RDPS_RelativeHumidity_IsbL-0700_RLatLon0.09_PT005H.grib2 2026-05-07 20:43 891K
20260507T18Z_MSC_RDPS_RelativeHumidity_IsbL-0750_RLatLon0.09_PT005H.grib2 2026-05-07 20:43 941K
20260507T18Z_MSC_RDPS_RelativeHumidity_IsbL-0800_RLatLon0.09_PT005H.grib2 2026-05-07 20:43 1.0M
20260507T18Z_MSC_RDPS_RelativeHumidity_IsbL-0850_RLatLon0.09_PT005H.grib2 2026-05-07 20:43 1.0M
20260507T18Z_MSC_RDPS_RelativeHumidity_IsbL-0875_RLatLon0.09_PT005H.grib2 2026-05-07 20:43 1.1M
20260507T18Z_MSC_RDPS_RelativeHumidity_IsbL-0900_RLatLon0.09_PT005H.grib2 2026-05-07 20:43 1.1M
20260507T18Z_MSC_RDPS_RelativeHumidity_IsbL-0925_RLatLon0.09_PT005H.grib2 2026-05-07 20:43 1.1M
20260507T18Z_MSC_RDPS_RelativeHumidity_IsbL-0950_RLatLon0.09_PT005H.grib2 2026-05-07 20:43 1.1M
20260507T18Z_MSC_RDPS_RelativeHumidity_IsbL-0970_RLatLon0.09_PT005H.grib2 2026-05-07 20:43 1.0M
20260507T18Z_MSC_RDPS_RelativeHumidity_IsbL-0985_RLatLon0.09_PT005H.grib2 2026-05-07 20:43 1.0M
20260507T18Z_MSC_RDPS_RelativeHumidity_IsbL-1000_RLatLon0.09_PT005H.grib2 2026-05-07 20:43 1.0M
20260507T18Z_MSC_RDPS_RelativeHumidity_IsbL-1015_RLatLon0.09_PT005H.grib2 2026-05-07 20:43 1.0M
20260507T18Z_MSC_RDPS_Runoff-Accum_Sfc_RLatLon0.09_PT005H.grib2 2026-05-07 20:43 55K
20260507T18Z_MSC_RDPS_SWEATIndex_Sfc_RLatLon0.09_PT005H.grib2 2026-05-07 20:43 2.4M
20260507T18Z_MSC_RDPS_SeeingIndex_EAtm_RLatLon0.09_PT005H.grib2 2026-05-07 20:43 1.0M
20260507T18Z_MSC_RDPS_SensibleHeatNetFlux_Sfc_RLatLon0.09_PT005H.grib2 2026-05-07 20:43 327K
20260507T18Z_MSC_RDPS_ShowalterIndex_IsbL-0500_RLatLon0.09_PT005H.grib2 2026-05-07 20:43 2.6M
20260507T18Z_MSC_RDPS_SkyTransparencyIndex_EAtm_RLatLon0.09_PT005H.grib2 2026-05-07 20:43 725K
20260507T18Z_MSC_RDPS_Snow-Accum1h_Sfc_RLatLon0.09_PT005H.grib2 2026-05-07 20:43 437K
20260507T18Z_MSC_RDPS_Snow-Accum_Sfc_RLatLon0.09_PT005H.grib2 2026-05-07 20:43 569K
20260507T18Z_MSC_RDPS_SnowDensity_Sfc_RLatLon0.09_PT005H.grib2 2026-05-07 20:43 164K
20260507T18Z_MSC_RDPS_SnowDepth_Sfc_RLatLon0.09_PT005H.grib2 2026-05-07 20:43 626K
20260507T18Z_MSC_RDPS_SoilTemp_DBS-0to10cm_RLatLon0.09_PT005H.grib2 2026-05-07 20:43 206K
20260507T18Z_MSC_RDPS_SoilTemp_Sfc_RLatLon0.09_PT005H.grib2 2026-05-07 20:43 285K
20260507T18Z_MSC_RDPS_SoilVolumetricIceContent_Sfc_RLatLon0.09_PT005H.grib2 2026-05-07 20:43 148K
20260507T18Z_MSC_RDPS_SoilVolumetricWaterContent_DBS-0to10cm_RLatLon0.09_PT005H.grib2 2026-05-07 20:43 282K
20260507T18Z_MSC_RDPS_SoilVolumetricWaterContent_DBS-0to1cm_RLatLon0.09_PT005H.grib2 2026-05-07 20:43 335K
20260507T18Z_MSC_RDPS_SpecificHumidity_AGL-120m_RLatLon0.09_PT005H.grib2 2026-05-07 20:43 497K
20260507T18Z_MSC_RDPS_SpecificHumidity_AGL-2m_RLatLon0.09_PT005H.grib2 2026-05-07 20:43 667K
20260507T18Z_MSC_RDPS_SpecificHumidity_AGL-40m_RLatLon0.09_PT005H.grib2 2026-05-07 20:43 502K
20260507T18Z_MSC_RDPS_SpecificHumidity_AGL-80m_RLatLon0.09_PT005H.grib2 2026-05-07 20:43 499K
20260507T18Z_MSC_RDPS_SpecificHumidity_IsbL-0001_RLatLon0.09_PT005H.grib2 2026-05-07 20:43 405K
20260507T18Z_MSC_RDPS_SpecificHumidity_IsbL-0005_RLatLon0.09_PT005H.grib2 2026-05-07 20:43 367K
20260507T18Z_MSC_RDPS_SpecificHumidity_IsbL-0010_RLatLon0.09_PT005H.grib2 2026-05-07 20:43 400K
20260507T18Z_MSC_RDPS_SpecificHumidity_IsbL-0020_RLatLon0.09_PT005H.grib2 2026-05-07 20:43 380K
20260507T18Z_MSC_RDPS_SpecificHumidity_IsbL-0030_RLatLon0.09_PT005H.grib2 2026-05-07 20:43 369K
20260507T18Z_MSC_RDPS_SpecificHumidity_IsbL-0050_RLatLon0.09_PT005H.grib2 2026-05-07 20:43 481K
20260507T18Z_MSC_RDPS_SpecificHumidity_IsbL-0100_RLatLon0.09_PT005H.grib2 2026-05-07 20:43 416K
20260507T18Z_MSC_RDPS_SpecificHumidity_IsbL-0150_RLatLon0.09_PT005H.grib2 2026-05-07 20:43 457K
20260507T18Z_MSC_RDPS_SpecificHumidity_IsbL-0175_RLatLon0.09_PT005H.grib2 2026-05-07 20:43 438K
20260507T18Z_MSC_RDPS_SpecificHumidity_IsbL-0200_RLatLon0.09_PT005H.grib2 2026-05-07 20:43 473K
20260507T18Z_MSC_RDPS_SpecificHumidity_IsbL-0225_RLatLon0.09_PT005H.grib2 2026-05-07 20:43 455K
20260507T18Z_MSC_RDPS_SpecificHumidity_IsbL-0250_RLatLon0.09_PT005H.grib2 2026-05-07 20:43 510K
20260507T18Z_MSC_RDPS_SpecificHumidity_IsbL-0275_RLatLon0.09_PT005H.grib2 2026-05-07 20:43 475K
20260507T18Z_MSC_RDPS_SpecificHumidity_IsbL-0300_RLatLon0.09_PT005H.grib2 2026-05-07 20:43 449K
20260507T18Z_MSC_RDPS_SpecificHumidity_IsbL-0350_RLatLon0.09_PT005H.grib2 2026-05-07 20:43 560K
20260507T18Z_MSC_RDPS_SpecificHumidity_IsbL-0400_RLatLon0.09_PT005H.grib2 2026-05-07 20:43 518K
20260507T18Z_MSC_RDPS_SpecificHumidity_IsbL-0450_RLatLon0.09_PT005H.grib2 2026-05-07 20:43 571K
20260507T18Z_MSC_RDPS_SpecificHumidity_IsbL-0500_RLatLon0.09_PT005H.grib2 2026-05-07 20:43 506K
20260507T18Z_MSC_RDPS_SpecificHumidity_IsbL-0550_RLatLon0.09_PT005H.grib2 2026-05-07 20:43 579K
20260507T18Z_MSC_RDPS_SpecificHumidity_IsbL-0600_RLatLon0.09_PT005H.grib2 2026-05-07 20:43 634K
20260507T18Z_MSC_RDPS_SpecificHumidity_IsbL-0650_RLatLon0.09_PT005H.grib2 2026-05-07 20:43 555K
20260507T18Z_MSC_RDPS_SpecificHumidity_IsbL-0700_RLatLon0.09_PT005H.grib2 2026-05-07 20:43 604K
20260507T18Z_MSC_RDPS_SpecificHumidity_IsbL-0750_RLatLon0.09_PT005H.grib2 2026-05-07 20:43 678K
20260507T18Z_MSC_RDPS_SpecificHumidity_IsbL-0800_RLatLon0.09_PT005H.grib2 2026-05-07 20:43 753K
20260507T18Z_MSC_RDPS_SpecificHumidity_IsbL-0850_RLatLon0.09_PT005H.grib2 2026-05-07 20:43 819K
20260507T18Z_MSC_RDPS_SpecificHumidity_IsbL-0875_RLatLon0.09_PT005H.grib2 2026-05-07 20:43 702K
20260507T18Z_MSC_RDPS_SpecificHumidity_IsbL-0900_RLatLon0.09_PT005H.grib2 2026-05-07 20:43 717K
20260507T18Z_MSC_RDPS_SpecificHumidity_IsbL-0925_RLatLon0.09_PT005H.grib2 2026-05-07 20:43 721K
20260507T18Z_MSC_RDPS_SpecificHumidity_IsbL-0950_RLatLon0.09_PT005H.grib2 2026-05-07 20:43 717K
20260507T18Z_MSC_RDPS_SpecificHumidity_IsbL-0970_RLatLon0.09_PT005H.grib2 2026-05-07 20:43 711K
20260507T18Z_MSC_RDPS_SpecificHumidity_IsbL-0985_RLatLon0.09_PT005H.grib2 2026-05-07 20:43 701K
20260507T18Z_MSC_RDPS_SpecificHumidity_IsbL-1000_RLatLon0.09_PT005H.grib2 2026-05-07 20:43 693K
20260507T18Z_MSC_RDPS_SpecificHumidity_IsbL-1015_RLatLon0.09_PT005H.grib2 2026-05-07 20:43 682K
20260507T18Z_MSC_RDPS_SpecificHumidity_Sfc_RLatLon0.09_PT005H.grib2 2026-05-07 20:43 344K
20260507T18Z_MSC_RDPS_StormRelativeHelicity_EtaL-10000_RLatLon0.09_PT005H.grib2 2026-05-07 20:43 1.1M
20260507T18Z_MSC_RDPS_StormSeverityIndex_EtaL-10000_RLatLon0.09_PT005H.grib2 2026-05-07 20:43 1.1M
20260507T18Z_MSC_RDPS_Thickness_IsbL-0850to0700_RLatLon0.09_PT005H.grib2 2026-05-07 20:43 173K
20260507T18Z_MSC_RDPS_Thickness_IsbL-1000to0500_RLatLon0.09_PT005H.grib2 2026-05-07 20:43 194K
20260507T18Z_MSC_RDPS_Thickness_IsbL-1000to0850_RLatLon0.09_PT005H.grib2 2026-05-07 20:43 183K
20260507T18Z_MSC_RDPS_TotalCloudCover_Sfc_RLatLon0.09_PT005H.grib2 2026-05-07 20:43 656K
20260507T18Z_MSC_RDPS_TotalTotalsIndex_Sfc_RLatLon0.09_PT005H.grib2 2026-05-07 20:43 2.4M
20260507T18Z_MSC_RDPS_UVIndex-ClearSky_Sfc_RLatLon0.09_PT005H.grib2 2026-05-07 20:43 205K
20260507T18Z_MSC_RDPS_UVIndex_Sfc_RLatLon0.09_PT005H.grib2 2026-05-07 20:43 447K
20260507T18Z_MSC_RDPS_UpwardLongwaveRadiationFlux_NTAtm_RLatLon0.09_PT005H.grib2 2026-05-07 20:43 384K
20260507T18Z_MSC_RDPS_UpwardShortwaveRadiationFlux_NTAtm_RLatLon0.09_PT005H.grib2 2026-05-07 20:43 401K
20260507T18Z_MSC_RDPS_VerticalVelocity_IsbL-0250_RLatLon0.09_PT005H.grib2 2026-05-07 20:43 541K
20260507T18Z_MSC_RDPS_VerticalVelocity_IsbL-0500_RLatLon0.09_PT005H.grib2 2026-05-07 20:43 667K
20260507T18Z_MSC_RDPS_VerticalVelocity_IsbL-0700_RLatLon0.09_PT005H.grib2 2026-05-07 20:43 591K
20260507T18Z_MSC_RDPS_VerticalVelocity_IsbL-0850_RLatLon0.09_PT005H.grib2 2026-05-07 20:43 694K
20260507T18Z_MSC_RDPS_VerticalWindShear_EtaL-6500_RLatLon0.09_PT005H.grib2 2026-05-07 20:43 1.2M
20260507T18Z_MSC_RDPS_WindChill_Sfc_RLatLon0.09_PT005H.grib2 2026-05-07 20:43 1.2M
20260507T18Z_MSC_RDPS_WindDir_AGL-10m_RLatLon0.09_PT005H.grib2 2026-05-07 20:43 959K
20260507T18Z_MSC_RDPS_WindDir_AGL-120m_RLatLon0.09_PT005H.grib2 2026-05-07 20:43 607K
20260507T18Z_MSC_RDPS_WindDir_AGL-40m_RLatLon0.09_PT005H.grib2 2026-05-07 20:43 630K
20260507T18Z_MSC_RDPS_WindDir_AGL-80m_RLatLon0.09_PT005H.grib2 2026-05-07 20:43 617K
20260507T18Z_MSC_RDPS_WindDir_IsbL-0001_RLatLon0.09_PT005H.grib2 2026-05-07 20:43 300K
20260507T18Z_MSC_RDPS_WindDir_IsbL-0005_RLatLon0.09_PT005H.grib2 2026-05-07 20:43 362K
20260507T18Z_MSC_RDPS_WindDir_IsbL-0010_RLatLon0.09_PT005H.grib2 2026-05-07 20:43 372K
20260507T18Z_MSC_RDPS_WindDir_IsbL-0020_RLatLon0.09_PT005H.grib2 2026-05-07 20:43 398K
20260507T18Z_MSC_RDPS_WindDir_IsbL-0030_RLatLon0.09_PT005H.grib2 2026-05-07 20:43 389K
20260507T18Z_MSC_RDPS_WindDir_IsbL-0050_RLatLon0.09_PT005H.grib2 2026-05-07 20:43 422K
20260507T18Z_MSC_RDPS_WindDir_IsbL-0100_RLatLon0.09_PT005H.grib2 2026-05-07 20:43 401K
20260507T18Z_MSC_RDPS_WindDir_IsbL-0150_RLatLon0.09_PT005H.grib2 2026-05-07 20:43 415K
20260507T18Z_MSC_RDPS_WindDir_IsbL-0175_RLatLon0.09_PT005H.grib2 2026-05-07 20:43 436K
20260507T18Z_MSC_RDPS_WindDir_IsbL-0200_RLatLon0.09_PT005H.grib2 2026-05-07 20:43 451K
20260507T18Z_MSC_RDPS_WindDir_IsbL-0225_RLatLon0.09_PT005H.grib2 2026-05-07 20:43 450K
20260507T18Z_MSC_RDPS_WindDir_IsbL-0250_RLatLon0.09_PT005H.grib2 2026-05-07 20:43 444K
20260507T18Z_MSC_RDPS_WindDir_IsbL-0275_RLatLon0.09_PT005H.grib2 2026-05-07 20:43 462K
20260507T18Z_MSC_RDPS_WindDir_IsbL-0300_RLatLon0.09_PT005H.grib2 2026-05-07 20:43 462K
20260507T18Z_MSC_RDPS_WindDir_IsbL-0350_RLatLon0.09_PT005H.grib2 2026-05-07 20:43 493K
20260507T18Z_MSC_RDPS_WindDir_IsbL-0400_RLatLon0.09_PT005H.grib2 2026-05-07 20:43 505K
20260507T18Z_MSC_RDPS_WindDir_IsbL-0450_RLatLon0.09_PT005H.grib2 2026-05-07 20:43 525K
20260507T18Z_MSC_RDPS_WindDir_IsbL-0500_RLatLon0.09_PT005H.grib2 2026-05-07 20:43 548K
20260507T18Z_MSC_RDPS_WindDir_IsbL-0550_RLatLon0.09_PT005H.grib2 2026-05-07 20:43 567K
20260507T18Z_MSC_RDPS_WindDir_IsbL-0600_RLatLon0.09_PT005H.grib2 2026-05-07 20:43 599K
20260507T18Z_MSC_RDPS_WindDir_IsbL-0650_RLatLon0.09_PT005H.grib2 2026-05-07 20:43 645K
20260507T18Z_MSC_RDPS_WindDir_IsbL-0700_RLatLon0.09_PT005H.grib2 2026-05-07 20:43 691K
20260507T18Z_MSC_RDPS_WindDir_IsbL-0750_RLatLon0.09_PT005H.grib2 2026-05-07 20:43 745K
20260507T18Z_MSC_RDPS_WindDir_IsbL-0800_RLatLon0.09_PT005H.grib2 2026-05-07 20:43 806K
20260507T18Z_MSC_RDPS_WindDir_IsbL-0850_RLatLon0.09_PT005H.grib2 2026-05-07 20:43 865K
20260507T18Z_MSC_RDPS_WindDir_IsbL-0875_RLatLon0.09_PT005H.grib2 2026-05-07 20:43 887K
20260507T18Z_MSC_RDPS_WindDir_IsbL-0900_RLatLon0.09_PT005H.grib2 2026-05-07 20:43 906K
20260507T18Z_MSC_RDPS_WindDir_IsbL-0925_RLatLon0.09_PT005H.grib2 2026-05-07 20:43 913K
20260507T18Z_MSC_RDPS_WindDir_IsbL-0950_RLatLon0.09_PT005H.grib2 2026-05-07 20:43 912K
20260507T18Z_MSC_RDPS_WindDir_IsbL-0970_RLatLon0.09_PT005H.grib2 2026-05-07 20:43 914K
20260507T18Z_MSC_RDPS_WindDir_IsbL-0985_RLatLon0.09_PT005H.grib2 2026-05-07 20:43 922K
20260507T18Z_MSC_RDPS_WindDir_IsbL-1000_RLatLon0.09_PT005H.grib2 2026-05-07 20:43 936K
20260507T18Z_MSC_RDPS_WindDir_IsbL-1015_RLatLon0.09_PT005H.grib2 2026-05-07 20:43 953K
20260507T18Z_MSC_RDPS_WindGust-Max_AGL-10m_RLatLon0.09_PT005H.grib2 2026-05-07 20:43 1.0M
20260507T18Z_MSC_RDPS_WindGust-Min_AGL-10m_RLatLon0.09_PT005H.grib2 2026-05-07 20:43 965K
20260507T18Z_MSC_RDPS_WindGust_AGL-10m_RLatLon0.09_PT005H.grib2 2026-05-07 20:43 1.0M
20260507T18Z_MSC_RDPS_WindSpeed_AGL-10m_RLatLon0.09_PT005H.grib2 2026-05-07 20:43 824K
20260507T18Z_MSC_RDPS_WindSpeed_AGL-120m_RLatLon0.09_PT005H.grib2 2026-05-07 20:43 652K
20260507T18Z_MSC_RDPS_WindSpeed_AGL-40m_RLatLon0.09_PT005H.grib2 2026-05-07 20:43 656K
20260507T18Z_MSC_RDPS_WindSpeed_AGL-80m_RLatLon0.09_PT005H.grib2 2026-05-07 20:43 653K
20260507T18Z_MSC_RDPS_WindSpeed_IsbL-0001_RLatLon0.09_PT005H.grib2 2026-05-07 20:43 329K
20260507T18Z_MSC_RDPS_WindSpeed_IsbL-0005_RLatLon0.09_PT005H.grib2 2026-05-07 20:43 286K
20260507T18Z_MSC_RDPS_WindSpeed_IsbL-0010_RLatLon0.09_PT005H.grib2 2026-05-07 20:43 384K
20260507T18Z_MSC_RDPS_WindSpeed_IsbL-0020_RLatLon0.09_PT005H.grib2 2026-05-07 20:43 402K
20260507T18Z_MSC_RDPS_WindSpeed_IsbL-0030_RLatLon0.09_PT005H.grib2 2026-05-07 20:43 306K
20260507T18Z_MSC_RDPS_WindSpeed_IsbL-0050_RLatLon0.09_PT005H.grib2 2026-05-07 20:43 333K
20260507T18Z_MSC_RDPS_WindSpeed_IsbL-0100_RLatLon0.09_PT005H.grib2 2026-05-07 20:43 424K
20260507T18Z_MSC_RDPS_WindSpeed_IsbL-0150_RLatLon0.09_PT005H.grib2 2026-05-07 20:43 397K
20260507T18Z_MSC_RDPS_WindSpeed_IsbL-0175_RLatLon0.09_PT005H.grib2 2026-05-07 20:43 419K
20260507T18Z_MSC_RDPS_WindSpeed_IsbL-0200_RLatLon0.09_PT005H.grib2 2026-05-07 20:43 436K
20260507T18Z_MSC_RDPS_WindSpeed_IsbL-0225_RLatLon0.09_PT005H.grib2 2026-05-07 20:43 440K
20260507T18Z_MSC_RDPS_WindSpeed_IsbL-0250_RLatLon0.09_PT005H.grib2 2026-05-07 20:43 439K
20260507T18Z_MSC_RDPS_WindSpeed_IsbL-0275_RLatLon0.09_PT005H.grib2 2026-05-07 20:43 454K
20260507T18Z_MSC_RDPS_WindSpeed_IsbL-0300_RLatLon0.09_PT005H.grib2 2026-05-07 20:43 452K
20260507T18Z_MSC_RDPS_WindSpeed_IsbL-0350_RLatLon0.09_PT005H.grib2 2026-05-07 20:43 464K
20260507T18Z_MSC_RDPS_WindSpeed_IsbL-0400_RLatLon0.09_PT005H.grib2 2026-05-07 20:43 453K
20260507T18Z_MSC_RDPS_WindSpeed_IsbL-0450_RLatLon0.09_PT005H.grib2 2026-05-07 20:43 456K
20260507T18Z_MSC_RDPS_WindSpeed_IsbL-0500_RLatLon0.09_PT005H.grib2 2026-05-07 20:43 460K
20260507T18Z_MSC_RDPS_WindSpeed_IsbL-0550_RLatLon0.09_PT005H.grib2 2026-05-07 20:43 578K
20260507T18Z_MSC_RDPS_WindSpeed_IsbL-0600_RLatLon0.09_PT005H.grib2 2026-05-07 20:43 632K
20260507T18Z_MSC_RDPS_WindSpeed_IsbL-0650_RLatLon0.09_PT005H.grib2 2026-05-07 20:43 655K
20260507T18Z_MSC_RDPS_WindSpeed_IsbL-0700_RLatLon0.09_PT005H.grib2 2026-05-07 20:43 683K
20260507T18Z_MSC_RDPS_WindSpeed_IsbL-0750_RLatLon0.09_PT005H.grib2 2026-05-07 20:43 716K
20260507T18Z_MSC_RDPS_WindSpeed_IsbL-0800_RLatLon0.09_PT005H.grib2 2026-05-07 20:43 761K
20260507T18Z_MSC_RDPS_WindSpeed_IsbL-0850_RLatLon0.09_PT005H.grib2 2026-05-07 20:43 810K
20260507T18Z_MSC_RDPS_WindSpeed_IsbL-0875_RLatLon0.09_PT005H.grib2 2026-05-07 20:43 828K
20260507T18Z_MSC_RDPS_WindSpeed_IsbL-0900_RLatLon0.09_PT005H.grib2 2026-05-07 20:43 839K
20260507T18Z_MSC_RDPS_WindSpeed_IsbL-0925_RLatLon0.09_PT005H.grib2 2026-05-07 20:43 851K
20260507T18Z_MSC_RDPS_WindSpeed_IsbL-0950_RLatLon0.09_PT005H.grib2 2026-05-07 20:43 852K
20260507T18Z_MSC_RDPS_WindSpeed_IsbL-0970_RLatLon0.09_PT005H.grib2 2026-05-07 20:43 847K
20260507T18Z_MSC_RDPS_WindSpeed_IsbL-0985_RLatLon0.09_PT005H.grib2 2026-05-07 20:43 843K
20260507T18Z_MSC_RDPS_WindSpeed_IsbL-1000_RLatLon0.09_PT005H.grib2 2026-05-07 20:43 835K
20260507T18Z_MSC_RDPS_WindSpeed_IsbL-1015_RLatLon0.09_PT005H.grib2 2026-05-07 20:43 825K
20260507T18Z_MSC_RDPS_WindU_AGL-10m_RLatLon0.09_PT005H.grib2 2026-05-07 20:43 428K
20260507T18Z_MSC_RDPS_WindU_AGL-120m_RLatLon0.09_PT005H.grib2 2026-05-07 20:43 525K
20260507T18Z_MSC_RDPS_WindU_AGL-40m_RLatLon0.09_PT005H.grib2 2026-05-07 20:43 529K
20260507T18Z_MSC_RDPS_WindU_AGL-80m_RLatLon0.09_PT005H.grib2 2026-05-07 20:43 526K
20260507T18Z_MSC_RDPS_WindU_IsbL-0001_RLatLon0.09_PT005H.grib2 2026-05-07 20:43 241K
20260507T18Z_MSC_RDPS_WindU_IsbL-0005_RLatLon0.09_PT005H.grib2 2026-05-07 20:43 277K
20260507T18Z_MSC_RDPS_WindU_IsbL-0010_RLatLon0.09_PT005H.grib2 2026-05-07 20:43 287K
20260507T18Z_MSC_RDPS_WindU_IsbL-0020_RLatLon0.09_PT005H.grib2 2026-05-07 20:43 302K
20260507T18Z_MSC_RDPS_WindU_IsbL-0030_RLatLon0.09_PT005H.grib2 2026-05-07 20:43 341K
20260507T18Z_MSC_RDPS_WindU_IsbL-0050_RLatLon0.09_PT005H.grib2 2026-05-07 20:43 363K
20260507T18Z_MSC_RDPS_WindU_IsbL-0100_RLatLon0.09_PT005H.grib2 2026-05-07 20:43 416K
20260507T18Z_MSC_RDPS_WindU_IsbL-0150_RLatLon0.09_PT005H.grib2 2026-05-07 20:43 391K
20260507T18Z_MSC_RDPS_WindU_IsbL-0175_RLatLon0.09_PT005H.grib2 2026-05-07 20:43 412K
20260507T18Z_MSC_RDPS_WindU_IsbL-0200_RLatLon0.09_PT005H.grib2 2026-05-07 20:43 428K
20260507T18Z_MSC_RDPS_WindU_IsbL-0225_RLatLon0.09_PT005H.grib2 2026-05-07 20:43 333K
20260507T18Z_MSC_RDPS_WindU_IsbL-0250_RLatLon0.09_PT005H.grib2 2026-05-07 20:43 332K
20260507T18Z_MSC_RDPS_WindU_IsbL-0275_RLatLon0.09_PT005H.grib2 2026-05-07 20:43 344K
20260507T18Z_MSC_RDPS_WindU_IsbL-0300_RLatLon0.09_PT005H.grib2 2026-05-07 20:43 341K
20260507T18Z_MSC_RDPS_WindU_IsbL-0350_RLatLon0.09_PT005H.grib2 2026-05-07 20:43 452K
20260507T18Z_MSC_RDPS_WindU_IsbL-0400_RLatLon0.09_PT005H.grib2 2026-05-07 20:43 458K
20260507T18Z_MSC_RDPS_WindU_IsbL-0450_RLatLon0.09_PT005H.grib2 2026-05-07 20:43 460K
20260507T18Z_MSC_RDPS_WindU_IsbL-0500_RLatLon0.09_PT005H.grib2 2026-05-07 20:43 465K
20260507T18Z_MSC_RDPS_WindU_IsbL-0550_RLatLon0.09_PT005H.grib2 2026-05-07 20:43 468K
20260507T18Z_MSC_RDPS_WindU_IsbL-0600_RLatLon0.09_PT005H.grib2 2026-05-07 20:43 462K
20260507T18Z_MSC_RDPS_WindU_IsbL-0650_RLatLon0.09_PT005H.grib2 2026-05-07 20:43 482K
20260507T18Z_MSC_RDPS_WindU_IsbL-0700_RLatLon0.09_PT005H.grib2 2026-05-07 20:43 508K
20260507T18Z_MSC_RDPS_WindU_IsbL-0750_RLatLon0.09_PT005H.grib2 2026-05-07 20:43 537K
20260507T18Z_MSC_RDPS_WindU_IsbL-0800_RLatLon0.09_PT005H.grib2 2026-05-07 20:43 575K
20260507T18Z_MSC_RDPS_WindU_IsbL-0850_RLatLon0.09_PT005H.grib2 2026-05-07 20:43 752K
20260507T18Z_MSC_RDPS_WindU_IsbL-0875_RLatLon0.09_PT005H.grib2 2026-05-07 20:43 768K
20260507T18Z_MSC_RDPS_WindU_IsbL-0900_RLatLon0.09_PT005H.grib2 2026-05-07 20:43 783K
20260507T18Z_MSC_RDPS_WindU_IsbL-0925_RLatLon0.09_PT005H.grib2 2026-05-07 20:43 651K
20260507T18Z_MSC_RDPS_WindU_IsbL-0950_RLatLon0.09_PT005H.grib2 2026-05-07 20:43 648K
20260507T18Z_MSC_RDPS_WindU_IsbL-0970_RLatLon0.09_PT005H.grib2 2026-05-07 20:43 784K
20260507T18Z_MSC_RDPS_WindU_IsbL-0985_RLatLon0.09_PT005H.grib2 2026-05-07 20:43 782K
20260507T18Z_MSC_RDPS_WindU_IsbL-1000_RLatLon0.09_PT005H.grib2 2026-05-07 20:43 776K
20260507T18Z_MSC_RDPS_WindU_IsbL-1015_RLatLon0.09_PT005H.grib2 2026-05-07 20:43 817K
20260507T18Z_MSC_RDPS_WindV_AGL-10m_RLatLon0.09_PT005H.grib2 2026-05-07 20:43 424K
20260507T18Z_MSC_RDPS_WindV_AGL-120m_RLatLon0.09_PT005H.grib2 2026-05-07 20:43 522K
20260507T18Z_MSC_RDPS_WindV_AGL-40m_RLatLon0.09_PT005H.grib2 2026-05-07 20:43 524K
20260507T18Z_MSC_RDPS_WindV_AGL-80m_RLatLon0.09_PT005H.grib2 2026-05-07 20:43 523K
20260507T18Z_MSC_RDPS_WindV_IsbL-0001_RLatLon0.09_PT005H.grib2 2026-05-07 20:43 242K
20260507T18Z_MSC_RDPS_WindV_IsbL-0005_RLatLon0.09_PT005H.grib2 2026-05-07 20:43 277K
20260507T18Z_MSC_RDPS_WindV_IsbL-0010_RLatLon0.09_PT005H.grib2 2026-05-07 20:43 287K
20260507T18Z_MSC_RDPS_WindV_IsbL-0020_RLatLon0.09_PT005H.grib2 2026-05-07 20:43 302K
20260507T18Z_MSC_RDPS_WindV_IsbL-0030_RLatLon0.09_PT005H.grib2 2026-05-07 20:43 301K
20260507T18Z_MSC_RDPS_WindV_IsbL-0050_RLatLon0.09_PT005H.grib2 2026-05-07 20:43 325K
20260507T18Z_MSC_RDPS_WindV_IsbL-0100_RLatLon0.09_PT005H.grib2 2026-05-07 20:43 414K
20260507T18Z_MSC_RDPS_WindV_IsbL-0150_RLatLon0.09_PT005H.grib2 2026-05-07 20:43 389K
20260507T18Z_MSC_RDPS_WindV_IsbL-0175_RLatLon0.09_PT005H.grib2 2026-05-07 20:43 412K
20260507T18Z_MSC_RDPS_WindV_IsbL-0200_RLatLon0.09_PT005H.grib2 2026-05-07 20:43 332K
20260507T18Z_MSC_RDPS_WindV_IsbL-0225_RLatLon0.09_PT005H.grib2 2026-05-07 20:43 361K
20260507T18Z_MSC_RDPS_WindV_IsbL-0250_RLatLon0.09_PT005H.grib2 2026-05-07 20:43 359K
20260507T18Z_MSC_RDPS_WindV_IsbL-0275_RLatLon0.09_PT005H.grib2 2026-05-07 20:43 370K
20260507T18Z_MSC_RDPS_WindV_IsbL-0300_RLatLon0.09_PT005H.grib2 2026-05-07 20:43 367K
20260507T18Z_MSC_RDPS_WindV_IsbL-0350_RLatLon0.09_PT005H.grib2 2026-05-07 20:43 352K
20260507T18Z_MSC_RDPS_WindV_IsbL-0400_RLatLon0.09_PT005H.grib2 2026-05-07 20:43 356K
20260507T18Z_MSC_RDPS_WindV_IsbL-0450_RLatLon0.09_PT005H.grib2 2026-05-07 20:43 459K
20260507T18Z_MSC_RDPS_WindV_IsbL-0500_RLatLon0.09_PT005H.grib2 2026-05-07 20:43 463K
20260507T18Z_MSC_RDPS_WindV_IsbL-0550_RLatLon0.09_PT005H.grib2 2026-05-07 20:43 466K
20260507T18Z_MSC_RDPS_WindV_IsbL-0600_RLatLon0.09_PT005H.grib2 2026-05-07 20:43 476K
20260507T18Z_MSC_RDPS_WindV_IsbL-0650_RLatLon0.09_PT005H.grib2 2026-05-07 20:43 494K
20260507T18Z_MSC_RDPS_WindV_IsbL-0700_RLatLon0.09_PT005H.grib2 2026-05-07 20:43 502K
20260507T18Z_MSC_RDPS_WindV_IsbL-0750_RLatLon0.09_PT005H.grib2 2026-05-07 20:43 531K
20260507T18Z_MSC_RDPS_WindV_IsbL-0800_RLatLon0.09_PT005H.grib2 2026-05-07 20:43 569K
20260507T18Z_MSC_RDPS_WindV_IsbL-0850_RLatLon0.09_PT005H.grib2 2026-05-07 20:43 611K
20260507T18Z_MSC_RDPS_WindV_IsbL-0875_RLatLon0.09_PT005H.grib2 2026-05-07 20:43 628K
20260507T18Z_MSC_RDPS_WindV_IsbL-0900_RLatLon0.09_PT005H.grib2 2026-05-07 20:43 641K
20260507T18Z_MSC_RDPS_WindV_IsbL-0925_RLatLon0.09_PT005H.grib2 2026-05-07 20:43 650K
20260507T18Z_MSC_RDPS_WindV_IsbL-0950_RLatLon0.09_PT005H.grib2 2026-05-07 20:43 647K
20260507T18Z_MSC_RDPS_WindV_IsbL-0970_RLatLon0.09_PT005H.grib2 2026-05-07 20:43 782K
20260507T18Z_MSC_RDPS_WindV_IsbL-0985_RLatLon0.09_PT005H.grib2 2026-05-07 20:43 778K
20260507T18Z_MSC_RDPS_WindV_IsbL-1000_RLatLon0.09_PT005H.grib2 2026-05-07 20:43 817K
20260507T18Z_MSC_RDPS_WindV_IsbL-1015_RLatLon0.09_PT005H.grib2 2026-05-07 20:43 809K